GFSSW_sfc_30mbdewp_000.txt.gz
Dewpoint
52 51 51 51 52 52 52 51 53 53 53 53 54 54 55 55 51 43 24 28 30 39 43 32 30 28 25 18 9 8 4 7 7 4 5 5 10 13 13 13 20 39 42 45 53
52 52 52 52 52 52 51 52 53 53 54 54 54 55 55 54 45 26 29 33 37 47 27 27 26 27 18 10 13 8 6 10 11 8 8 11 12 8 7 19 30 45 45 48 55
52 52 52 52 52 51 52 53 53 53 54 54 54 54 54 53 33 25 32 36 40 48 35 33 31 26 14 14 14 12 14 14 16 14 14 17 16 15 13 15 22 43 40 49 54
53 52 52 52 52 52 54 54 54 54 54 53 54 54 53 46 16 28 34 37 41 47 34 28 25 23 16 19 18 14 17 18 17 17 17 18 18 17 16 15 22 41 47 50 51
54 54 54 53 53 54 54 54 54 54 53 53 54 53 45 31 27 30 34 32 29 28 25 23 24 24 23 23 21 17 17 19 19 19 18 19 16 16 17 17 21 31 40 45 47
53 53 53 54 54 54 54 54 54 54 53 53 53 53 37 25 29 29 30 30 28 27 25 23 23 25 24 22 22 23 21 22 20 20 20 19 19 19 19 16 21 30 30 31 32
53 53 53 53 53 54 54 54 54 53 53 52 52 49 44 24 28 31 30 29 28 29 25 23 23 24 23 25 25 23 21 20 21 20 19 16 11 12 13 16 20 23 28 29 29
52 52 52 52 52 52 53 53 53 53 53 52 52 48 28 29 31 29 30 29 30 30 29 25 25 24 24 25 27 23 21 18 18 21 17 12 10 12 15 17 19 22 24 28 29
52 51 51 51 51 52 52 51 52 52 53 52 47 43 29 29 28 29 29 28 27 30 31 30 27 25 24 19 17 18 14 15 16 18 16 14 13 18 21 18 18 20 21 24 26
51 51 50 50 50 49 48 50 52 52 51 51 46 35 30 27 27 29 25 23 22 27 29 28 27 22 20 17 12 16 14 15 17 19 24 21 20 23 19 18 18 18 19 21 24
51 49 48 47 48 49 45 44 40 32 37 24 24 25 23 25 28 24 23 24 25 26 24 22 19 17 17 19 20 17 18 21 21 22 25 23 24 23 21 20 20 21 23 25 28
49 48 47 46 45 48 52 44 46 46 30 26 24 23 24 25 24 24 23 22 24 19 17 21 19 19 19 21 19 19 21 21 23 24 26 25 23 18 17 18 20 23 24 24 26
49 48 47 45 44 49 45 47 54 51 39 23 25 23 24 24 23 24 22 23 23 20 18 20 19 18 19 20 19 18 21 22 23 26 27 25 19 16 18 22 23 23 24 24 24
49 49 48 47 39 48 45 48 52 54 33 22 25 26 24 23 24 26 24 25 23 19 18 20 19 15 21 20 21 19 21 24 25 25 22 26 21 19 17 19 22 23 24 24 25
49 50 49 48 50 44 48 52 55 51 25 25 22 26 25 21 21 22 25 25 21 23 19 20 15 17 19 19 24 22 24 27 27 26 25 23 21 19 18 17 20 24 26 27 28
48 49 51 51 49 49 54 56 51 42 29 22 23 23 24 24 22 26 31 31 31 29 27 20 21 22 22 26 27 28 28 29 29 26 21 23 21 19 21 20 23 26 27 28 28
47 47 51 54 47 54 57 49 40 26 31 23 23 23 24 22 24 28 29 29 27 20 25 28 25 25 28 26 27 28 28 23 16 21 22 26 23 20 21 22 23 24 26 27 28
48 47 55 55 56 55 51 40 27 29 24 25 24 23 24 23 23 28 27 28 30 30 29 29 24 30 28 27 27 27 29 25 19 22 23 26 21 21 25 25 24 25 27 29 31
50 54 51 51 56 56 44 29 27 27 26 24 25 23 24 25 22 27 29 29 30 31 28 30 27 32 30 32 29 28 27 30 26 28 26 26 27 24 26 29 29 29 30 32 33
48 53 45 53 54 51 34 26 24 26 28 30 25 26 25 28 27 27 28 31 30 32 33 33 30 33 32 33 31 29 30 27 29 24 25 25 25 23 25 30 31 31 31 32 32
54 41 44 53 53 41 27 24 24 26 29 29 29 30 30 30 31 29 30 32 32 31 35 33 32 28 30 31 30 27 30 30 31 30 28 27 28 29 30 31 31 32 32 32 32
51 32 42 49 38 42 28 27 28 29 33 32 33 31 31 31 31 31 31 32 34 34 33 34 31 29 27 32 33 32 31 31 28 27 29 28 27 31 32 31 31 31 33 33 33
44 43 49 47 28 30 31 32 33 32 32 33 32 33 33 33 30 32 33 34 33 34 32 33 29 25 22 26 31 31 31 32 32 30 28 26 25 29 30 31 32 33 34 34 36
41 34 41 43 43 32 31 31 30 34 33 34 32 34 32 33 33 29 33 36 36 35 36 34 32 28 25 26 32 31 31 32 30 28 28 28 28 28 29 32 34 35 36 36 38
43 35 41 34 35 34 35 34 32 33 33 33 33 34 32 31 31 34 36 36 36 37 35 34 31 32 32 32 33 33 33 33 32 30 28 28 27 29 33 34 35 36 37 37 38
39 41 41 39 39 31 34 31 32 31 33 32 34 35 35 35 35 35 36 36 35 36 36 37 33 34 33 34 34 33 33 33 31 30 29 28 27 36 38 38 38 37 37 38 38
48 46 39 38 35 33 35 32 32 34 35 34 34 33 32 37 38 39 39 38 38 36 36 36 34 33 27 33 33 29 30 29 28 28 27 27 29 37 38 38 38 38 38 38 38

GFSSW_sfc_30mbdewp_003.txt.gz
Dewpoint
51 51 52 51 51 52 52 52 52 54 54 54 54 55 55 56 53 48 21 27 30 43 43 29 28 28 25 20 8 8 6 6 5 3 5 8 9 13 13 27 24 42 42 45 56
52 52 52 52 52 52 52 52 53 54 54 54 54 55 55 55 47 25 28 34 40 41 30 29 26 28 13 11 13 9 7 9 10 8 8 12 10 9 11 29 40 43 46 51 55
52 52 52 52 52 51 52 53 54 54 54 54 54 55 55 54 25 22 30 36 44 46 35 33 30 27 15 16 13 13 13 13 15 13 12 16 16 15 13 21 38 38 45 53 55
53 52 52 51 52 52 52 54 54 54 54 54 54 55 55 46 9 24 36 38 41 48 32 25 25 22 21 20 20 13 16 16 16 17 17 16 17 16 15 14 23 41 45 53 54
53 54 53 52 52 53 54 54 54 54 54 53 54 55 44 27 27 30 33 31 29 29 23 22 22 22 22 22 21 17 17 18 19 18 18 18 16 15 16 17 22 41 43 49 52
53 53 54 54 54 54 54 54 54 54 54 53 54 53 37 23 28 29 30 29 28 28 25 22 22 24 22 22 20 23 22 21 21 20 20 19 18 19 18 18 21 35 44 48 49
53 53 53 53 54 54 54 54 54 54 53 53 53 49 38 25 26 31 30 29 30 29 27 24 24 23 23 22 24 22 19 21 20 21 20 19 13 13 17 16 20 30 40 41 43
52 52 52 52 52 52 53 53 53 53 53 52 52 45 27 29 31 29 30 29 29 29 30 28 27 25 23 24 25 19 19 15 17 21 18 12 11 12 15 17 16 21 29 29 29
52 51 51 51 51 51 52 53 53 53 52 51 46 40 27 32 28 30 26 23 24 27 28 31 28 24 22 15 16 18 13 14 16 22 23 15 13 13 20 20 18 18 22 26 28
50 50 50 51 51 51 52 53 53 52 49 46 44 30 28 26 28 26 25 24 22 25 27 27 25 18 20 17 10 15 13 17 17 20 26 24 19 22 24 19 18 19 20 21 23
50 49 49 48 48 50 50 47 39 30 37 25 24 24 23 24 28 25 24 24 26 25 20 24 18 16 17 19 20 18 19 21 21 22 25 25 25 24 22 20 19 19 21 27 28
49 49 47 45 45 50 47 44 45 44 28 29 24 23 25 26 23 24 23 23 23 19 18 22 18 19 21 21 19 19 20 18 23 25 27 25 24 17 18 20 22 23 26 27 28
49 49 47 45 47 46 47 49 54 50 30 24 25 24 25 24 22 24 23 24 23 18 21 19 19 18 20 20 18 18 19 20 22 26 26 25 20 16 20 22 24 24 25 26 28
49 49 47 47 46 47 43 47 52 49 24 23 25 25 23 23 22 25 24 25 22 18 19 20 17 19 19 20 22 19 20 23 24 25 22 25 17 20 17 21 22 24 24 25 26
48 49 47 50 47 43 47 53 56 47 13 25 22 26 25 20 20 27 32 24 24 25 19 20 16 20 22 23 24 24 27 27 28 27 25 23 20 21 21 17 21 25 26 26 27
47 49 48 51 47 49 54 55 49 37 21 22 24 24 23 24 24 30 31 32 32 28 28 25 23 24 24 26 28 29 29 28 29 26 21 24 23 20 21 21 24 26 27 28 28
47 50 51 54 42 53 55 46 36 22 30 23 23 23 24 22 26 29 30 30 27 17 27 30 29 29 28 27 29 29 28 17 16 18 21 27 22 21 23 24 25 26 27 28 28
47 50 55 54 55 55 47 37 23 29 25 27 24 24 21 23 26 29 29 29 30 30 30 29 22 31 30 28 28 28 28 23 16 20 22 26 22 23 25 25 25 26 27 30 32
51 54 47 50 55 54 39 27 25 27 26 25 26 24 25 28 26 28 30 30 31 32 27 30 26 33 32 33 30 29 27 30 26 27 26 26 27 27 29 31 27 30 31 33 34
51 48 44 53 54 43 29 26 24 26 29 30 25 28 25 30 28 28 29 31 30 35 33 33 29 32 31 32 32 29 30 27 28 24 22 25 26 24 27 31 30 31 31 31 32
54 33 42 53 47 34 24 23 24 29 30 31 29 30 31 30 31 30 30 32 32 32 34 32 31 26 29 29 30 30 30 30 30 29 26 25 26 30 30 29 31 31 32 32 32
45 30 43 46 36 37 27 27 31 33 34 33 33 32 32 32 32 31 31 31 34 34 31 34 31 26 26 32 34 32 31 30 26 24 27 26 25 30 30 31 32 32 34 35 34
42 41 45 40 31 29 32 32 33 32 33 32 31 33 35 33 30 32 33 35 34 34 33 33 29 23 22 26 28 31 32 32 30 29 27 24 24 30 31 32 33 34 35 36 35
37 30 38 41 39 31 30 30 31 34 33 34 33 34 33 33 33 31 34 36 37 36 36 34 31 27 23 24 30 30 32 33 31 28 27 27 27 29 30 33 35 36 36 37 37
39 36 41 33 34 35 35 33 32 31 32 34 34 34 32 31 32 35 36 36 36 37 36 35 32 32 31 32 33 33 33 33 32 31 30 29 29 29 30 36 37 37 37 37 37
39 38 39 40 39 31 32 30 34 32 33 32 34 35 35 34 34 34 36 35 34 36 36 37 31 34 32 33 34 33 33 34 33 33 31 30 27 29 36 38 38 38 38 38 37
47 45 36 37 32 31 34 32 32 34 35 34 35 33 31 36 38 38 38 38 36 35 35 35 33 33 26 31 32 25 27 29 30 27 27 26 27 34 36 37 38 38 38 38 37

GFSSW_sfc_30mbdewp_006.txt.gz
Dewpoint
51 51 51 51 51 51 51 51 51 53 54 54 54 55 55 56 53 46 22 25 29 39 46 30 28 28 23 16 7 8 5 2 1 1 5 9 9 13 17 30 28 43 45 45 56
51 51 52 52 51 51 51 51 52 53 54 54 54 55 55 55 45 25 28 32 39 45 33 30 25 24 12 13 12 8 6 7 9 7 9 12 9 9 18 31 37 42 47 54 56
52 52 52 52 52 51 51 51 53 54 54 54 55 55 55 54 22 24 36 41 47 47 35 32 29 20 20 18 14 15 10 13 14 12 11 15 16 15 17 24 35 30 45 54 56
53 52 52 51 51 51 51 51 53 54 54 54 54 55 55 48 20 24 35 37 44 42 27 24 24 23 21 17 20 13 15 15 16 17 17 16 17 15 15 14 26 38 47 54 55
53 54 52 52 52 52 52 52 54 54 54 54 54 55 49 27 27 30 34 30 31 28 23 23 22 23 20 22 21 18 17 18 19 17 17 18 17 15 16 18 19 36 49 53 55
53 53 54 53 53 52 52 54 54 54 54 53 54 54 37 23 28 30 30 29 29 28 26 23 23 23 23 22 19 22 22 21 21 20 20 19 19 18 17 18 19 38 43 52 53
52 53 53 53 54 54 54 54 54 54 53 54 54 51 29 26 29 30 29 29 30 28 28 26 25 22 23 22 25 23 19 19 19 21 20 19 15 14 18 15 17 26 42 45 49
52 52 52 52 53 53 53 53 53 53 53 53 53 45 26 30 32 29 26 23 25 29 29 29 28 24 22 24 21 18 17 14 18 20 17 13 15 15 14 18 19 18 33 42 45
51 51 51 51 52 52 52 52 53 53 53 52 45 36 26 32 27 29 25 22 23 26 30 30 26 23 21 14 16 17 11 14 16 23 25 20 18 16 17 23 23 19 21 33 32
50 50 50 50 50 51 52 52 52 52 49 45 40 27 25 24 27 26 25 25 23 26 25 23 21 16 19 15 6 15 13 18 17 21 25 25 23 25 25 23 22 19 20 24 25
49 48 48 48 49 51 51 48 33 28 32 23 24 24 23 24 27 25 25 25 25 21 18 24 17 16 18 20 19 19 18 20 21 23 26 25 25 19 20 20 19 19 22 26 28
49 49 48 47 48 51 48 44 44 44 24 27 24 24 25 26 23 25 25 23 21 18 18 20 17 19 21 20 18 18 19 16 22 24 27 26 23 17 21 22 23 25 27 27 27
49 49 47 47 48 48 48 50 55 47 23 24 26 25 24 24 23 24 24 26 21 18 21 19 18 21 20 22 22 21 17 19 22 25 26 24 19 19 20 23 24 25 26 27 27
49 48 47 45 43 46 43 49 53 41 23 22 23 24 24 23 21 28 31 25 21 18 20 21 19 21 24 23 23 21 21 25 25 26 21 25 17 21 22 21 23 24 24 25 27
49 48 51 45 46 43 47 53 55 40 8 23 22 25 26 20 22 30 33 25 27 25 22 17 20 24 25 24 25 25 29 28 27 27 25 24 19 20 22 19 21 24 25 26 26
48 49 49 47 46 50 54 53 46 29 17 23 24 24 22 25 28 31 31 32 31 28 30 27 26 25 26 26 28 30 29 26 28 26 21 25 23 21 22 22 24 26 26 27 28
49 52 51 53 40 53 53 44 30 21 29 23 22 23 22 24 28 30 30 29 27 17 26 29 29 31 29 28 30 29 25 16 18 18 19 26 23 20 24 25 25 25 26 28 30
49 52 53 53 54 53 44 34 21 27 25 27 24 25 23 24 28 30 29 28 31 30 30 27 21 30 31 28 27 28 28 23 15 18 21 27 22 24 27 27 26 27 31 33 35
54 50 45 51 54 49 38 25 24 26 26 25 26 24 26 29 27 29 30 30 32 33 27 30 26 32 33 33 30 28 27 30 26 26 26 25 27 28 30 30 30 32 32 31 32
52 41 45 52 53 39 29 26 24 28 29 29 25 28 25 30 28 28 29 31 30 34 33 33 27 31 31 32 31 30 31 25 27 22 19 23 24 24 28 28 32 31 31 32 32
50 32 42 53 43 31 24 23 26 33 32 30 30 30 30 30 30 30 30 31 32 33 33 31 30 23 28 29 30 30 29 29 29 28 25 24 24 30 29 30 31 32 34 35 34
40 29 44 47 30 33 26 28 32 33 34 33 33 32 31 32 31 31 31 32 34 35 32 33 30 24 24 29 34 32 29 28 22 22 27 26 24 30 31 32 32 34 35 36 36
40 39 43 40 26 29 32 32 33 32 33 31 32 34 34 32 30 32 33 37 37 34 33 32 28 21 15 25 30 30 32 31 29 29 27 25 22 30 30 32 34 35 36 37 37
37 35 37 40 37 31 30 30 32 34 33 35 34 33 33 32 34 32 34 36 37 37 36 34 30 25 18 22 27 29 32 32 32 29 27 27 27 29 30 31 33 36 37 38 38
38 37 39 31 34 34 34 31 32 30 33 35 34 33 32 31 32 34 35 35 35 37 37 35 32 31 31 31 31 32 32 32 32 32 29 28 29 30 32 31 36 37 38 38 38
37 38 40 39 37 32 32 31 34 33 32 33 33 35 35 32 33 32 35 34 32 35 35 36 29 33 30 33 33 31 32 33 33 33 33 32 32 32 31 37 37 37 37 38 38
45 43 38 37 32 30 32 32 32 34 35 34 34 32 31 34 37 37 38 37 36 34 34 35 33 32 21 30 30 20 23 29 29 30 28 25 26 29 34 36 35 36 38 39 38

GFSSW_sfc_30mbdewp_009.txt.gz
Dewpoint
51 51 51 51 51 51 51 51 51 51 53 54 54 55 55 55 53 49 26 28 29 43 40 32 29 28 22 12 9 11 4 2 0 2 6 10 10 14 23 34 30 40 49 48 58
51 51 51 51 51 51 51 51 51 52 54 54 54 55 55 55 48 27 29 37 45 48 33 28 25 22 15 14 14 9 7 7 8 7 10 13 10 10 19 31 38 42 48 55 59
52 52 52 52 52 51 51 51 51 53 54 54 55 55 55 55 28 26 34 41 48 46 34 31 26 22 20 19 17 15 9 13 13 10 13 15 16 14 19 22 30 28 46 56 58
53 52 52 52 52 51 51 51 51 53 53 54 55 55 55 49 23 26 35 38 46 42 30 26 25 23 21 17 19 15 15 16 16 17 16 15 17 15 18 15 23 36 49 55 56
53 54 52 52 51 51 51 51 52 53 54 55 55 55 49 27 26 29 33 31 32 28 24 23 22 23 20 21 21 18 17 18 18 16 16 18 17 16 17 18 18 39 51 54 55
53 53 53 52 52 52 52 52 52 54 54 54 54 54 34 25 28 30 30 29 28 29 26 26 24 24 24 21 21 22 21 21 21 20 21 19 19 19 18 19 21 36 46 52 55
52 52 53 54 54 53 53 53 54 54 54 54 54 52 28 27 29 31 26 28 27 29 27 26 26 23 24 22 26 23 17 19 20 21 19 19 17 16 17 16 18 28 41 50 53
52 52 52 53 53 53 54 54 53 53 53 53 54 47 26 30 34 28 25 23 26 29 29 30 27 25 22 25 20 18 17 16 19 23 23 17 17 19 17 19 21 22 27 43 48
51 51 51 52 52 52 52 52 52 53 53 53 46 33 26 30 27 29 25 23 24 29 29 27 25 23 20 18 16 17 9 15 17 25 26 24 21 23 25 25 25 23 21 34 41
50 50 50 51 51 52 52 52 51 50 49 49 38 24 24 23 26 27 26 27 25 25 24 23 21 19 21 12 5 14 14 18 17 21 26 25 24 25 21 21 23 21 22 28 32
51 49 49 49 51 52 49 45 30 27 30 23 24 23 23 25 26 26 25 25 23 22 19 23 19 17 20 20 19 18 18 19 21 24 26 26 24 19 22 22 21 22 24 26 28
50 48 48 48 49 51 49 42 40 40 23 27 25 24 24 26 24 26 27 22 21 17 21 20 17 19 21 21 18 19 18 17 22 24 27 26 21 20 23 25 27 27 28 28 29
49 48 48 49 50 49 49 50 54 46 23 24 27 25 24 26 28 28 27 27 20 21 20 19 18 22 21 24 23 23 19 20 22 25 27 24 21 22 21 24 25 27 28 28 28
48 48 51 48 44 45 44 48 53 41 21 23 23 24 25 23 23 32 33 25 24 19 22 18 22 25 25 24 25 21 24 28 26 26 21 25 17 22 22 22 24 25 26 28 28
48 50 49 43 44 43 46 53 55 36 3 23 24 26 27 24 24 29 34 30 25 25 23 17 23 25 25 24 27 27 30 29 28 27 26 26 20 22 24 21 21 25 26 28 29
49 48 49 44 47 50 54 51 44 22 13 23 25 23 26 28 30 31 31 32 30 29 29 27 29 27 27 27 29 30 29 26 28 27 22 25 23 22 24 24 24 26 28 30 31
53 52 51 50 40 53 51 42 25 17 29 22 21 24 25 27 29 30 30 32 27 18 26 28 29 31 30 27 30 30 24 17 18 19 19 26 24 23 26 26 26 27 29 34 37
52 51 52 53 54 52 43 32 20 27 25 26 25 26 23 27 29 30 29 28 33 30 30 26 21 30 33 30 28 30 28 23 12 17 21 27 22 25 30 31 30 33 33 33 34
53 45 47 51 54 46 38 25 24 26 25 25 27 24 27 30 28 29 30 30 32 33 27 28 25 32 33 33 31 29 28 30 26 26 26 25 27 29 30 30 32 31 33 33 34
46 42 45 51 50 37 29 25 25 29 29 28 24 27 25 30 27 28 29 31 30 34 34 33 26 30 31 32 32 30 31 25 28 20 18 22 25 22 28 29 31 32 34 35 36
43 37 43 51 40 31 24 24 28 34 33 29 29 30 30 30 30 30 30 32 32 33 33 31 29 24 29 30 30 30 28 29 29 29 25 24 23 30 29 31 31 33 35 36 37
37 34 45 47 29 32 27 28 32 33 34 33 33 32 31 32 32 31 31 32 35 34 32 33 30 21 25 31 34 32 28 27 22 20 27 27 23 29 31 32 32 34 36 37 38
39 40 43 40 26 30 32 33 33 32 33 31 33 34 34 32 30 33 33 37 37 35 33 32 28 17 15 26 29 31 32 30 30 30 27 25 23 29 32 31 33 35 36 37 38
36 35 37 38 37 31 31 31 32 34 34 35 34 34 33 32 34 33 34 36 37 37 36 34 30 24 13 17 26 27 31 31 31 29 26 27 26 28 29 30 32 34 37 37 38
39 38 38 30 33 33 32 31 31 30 34 35 33 32 32 31 32 34 35 34 35 37 37 35 31 31 30 31 31 30 31 31 31 31 29 28 28 29 31 33 33 37 37 37 37
38 37 39 37 35 32 31 33 32 33 32 33 33 35 33 30 30 29 33 33 30 35 35 35 28 32 30 32 32 30 31 32 32 32 32 32 31 33 34 35 37 36 36 36 39
45 42 38 35 31 31 31 33 33 34 35 35 35 32 30 33 36 36 37 37 35 33 34 34 33 31 20 30 30 22 22 28 29 30 28 26 26 31 33 36 35 35 37 38 34

GFSSW_sfc_30mbdewp_012.txt.gz
Dewpoint
51 52 52 51 51 51 51 51 51 52 52 53 54 55 55 55 54 48 27 30 32 41 37 31 29 28 20 11 11 10 1 -0 2 2 5 9 7 14 29 28 31 35 37 42 52
52 52 52 52 51 52 51 51 52 52 52 53 55 55 55 55 43 27 31 39 48 47 33 28 22 18 13 14 14 6 1 3 5 6 5 8 6 11 17 21 27 34 44 49 55
53 52 52 52 52 51 51 52 52 52 53 54 54 55 55 54 29 26 35 42 49 46 32 28 22 19 14 16 16 11 4 8 8 10 8 7 9 11 9 12 16 17 36 49 54
53 52 52 52 52 52 52 52 52 52 53 54 54 55 55 45 20 27 34 37 47 37 28 26 23 16 11 10 14 10 13 10 11 13 11 9 13 12 12 9 20 24 34 45 49
52 53 52 52 52 52 52 51 51 52 53 54 55 55 50 29 26 29 33 30 34 27 24 23 17 18 10 13 13 12 15 16 15 14 13 16 14 17 15 14 18 31 39 40 43
52 53 54 52 52 52 52 51 51 52 54 54 55 54 39 23 28 29 28 26 28 27 26 23 22 22 21 20 17 22 20 21 21 19 21 19 19 19 16 19 18 29 35 39 40
52 52 53 54 52 52 52 52 52 54 54 54 54 51 29 27 30 28 26 26 26 28 27 28 25 22 24 23 25 23 19 21 21 21 20 19 17 15 17 18 18 22 28 36 39
52 52 52 53 54 54 54 54 54 54 53 54 53 48 26 31 31 26 23 24 28 30 31 30 27 25 25 25 20 17 17 13 21 21 24 21 13 18 24 22 19 23 24 35 39
51 52 52 52 52 53 53 53 53 53 53 52 49 37 23 29 26 28 26 24 27 30 30 27 26 24 22 18 13 13 6 12 18 23 24 22 17 22 22 22 24 21 24 28 35
50 50 51 51 51 52 52 52 52 51 48 46 35 25 23 22 26 26 25 28 27 27 25 24 22 17 15 7 2 9 9 12 13 19 20 19 20 20 22 22 25 25 23 24 34
51 50 49 50 51 51 51 48 35 32 29 26 25 23 23 25 27 26 26 26 24 23 19 23 17 17 20 21 19 17 15 15 16 23 25 24 21 20 22 23 24 23 24 28 33
51 50 49 49 51 51 51 38 41 38 23 27 25 25 26 26 23 27 29 22 22 18 23 17 19 21 23 22 19 19 17 16 21 24 26 24 20 20 23 25 26 25 26 28 29
50 49 49 49 50 52 49 49 54 47 23 25 27 25 25 28 29 29 28 25 21 19 20 17 19 22 24 24 23 23 20 23 23 25 26 24 21 20 22 25 26 26 27 27 28
50 50 50 50 46 47 45 50 55 47 20 22 22 25 25 25 26 32 32 26 24 20 20 20 25 26 24 25 27 20 26 28 26 24 15 26 15 21 21 22 24 26 28 29 29
49 50 49 48 47 39 48 54 56 45 15 24 24 27 30 25 27 29 34 28 24 24 25 21 25 26 25 26 29 27 31 28 28 25 23 23 18 22 22 20 22 25 28 30 31
50 49 49 47 51 52 55 54 50 32 17 23 25 26 27 29 29 29 30 31 31 26 25 26 29 29 29 28 29 31 29 29 29 28 23 25 22 22 24 25 24 26 30 33 34
53 52 52 50 45 56 55 46 26 22 28 22 23 26 27 28 29 29 30 31 27 22 24 25 28 30 32 26 31 28 25 20 24 23 21 25 22 26 27 27 29 30 33 35 37
52 52 53 54 55 56 48 38 21 27 25 26 25 26 25 29 29 30 28 27 31 28 25 22 23 30 32 31 29 29 28 25 19 19 20 25 19 25 29 31 32 32 33 34 34
51 50 51 54 56 52 40 32 27 26 25 24 25 23 26 29 28 29 30 29 32 32 26 25 25 31 32 32 31 28 28 30 28 28 27 21 25 29 29 30 30 32 33 34 34
45 45 49 54 54 46 38 27 27 29 29 26 23 27 25 28 28 28 29 32 31 33 33 31 26 29 30 32 32 30 31 26 25 22 14 11 16 16 28 29 30 31 32 34 34
45 36 49 54 49 37 33 30 30 33 34 29 29 29 30 29 29 30 30 32 33 33 33 29 28 25 30 30 29 30 29 29 27 28 20 17 12 28 28 30 29 31 32 34 35
44 37 49 52 36 34 30 30 33 33 35 34 34 32 31 33 32 32 31 32 36 35 30 34 31 21 22 32 33 31 28 27 22 21 26 27 19 27 29 31 32 32 34 35 36
41 42 47 47 35 38 34 33 34 33 33 33 34 35 35 33 32 33 34 37 38 35 33 33 28 16 19 29 31 30 30 30 30 31 26 25 21 26 29 30 29 31 33 35 34
41 41 41 39 38 33 32 33 33 35 35 35 35 34 34 33 35 34 35 37 38 37 35 35 31 23 11 15 24 22 24 27 28 28 24 23 23 24 24 26 28 31 35 35 35
43 42 42 38 37 34 34 33 32 32 35 35 33 33 33 32 33 34 35 35 36 37 38 36 27 29 27 27 26 26 25 25 25 27 26 26 24 25 27 28 31 34 35 35 36
42 41 40 38 38 34 35 33 31 33 33 32 32 33 31 29 26 30 29 29 26 36 34 36 29 32 28 28 26 26 26 25 27 28 28 28 27 28 29 32 35 35 35 36 37
47 43 41 36 37 37 35 33 32 35 36 35 34 33 32 32 34 38 38 38 35 33 35 36 35 32 26 29 28 25 27 25 26 29 28 26 26 30 32 34 35 36 36 37 36

GFSSW_sfc_30mbdewp_015.txt.gz
Dewpoint
54 54 52 52 52 52 51 51 51 52 53 53 53 54 55 56 55 48 32 30 34 38 34 31 29 26 21 10 10 8 4 2 2 2 4 5 5 8 18 22 24 26 33 40 48
54 54 52 52 53 52 51 51 51 52 53 53 53 55 56 55 47 26 33 40 46 46 32 27 22 18 10 10 8 6 1 2 2 4 3 4 3 7 15 16 21 28 33 44 48
54 54 52 53 53 52 51 52 52 52 52 53 54 55 56 55 41 23 39 39 47 47 33 25 16 14 10 9 8 4 4 5 3 3 2 0 2 5 8 12 18 22 29 42 46
54 54 53 53 52 52 52 52 52 52 52 53 54 55 56 51 20 26 34 39 43 41 26 21 18 11 7 7 7 4 5 2 2 5 5 3 7 7 6 8 12 17 31 40 43
54 53 53 52 52 52 52 52 52 52 52 53 55 55 53 35 22 28 30 36 40 26 21 18 14 9 4 4 3 4 6 4 5 7 8 10 11 13 8 11 15 23 32 38 41
53 53 53 54 53 53 52 52 52 52 52 54 55 55 46 24 26 26 26 24 25 22 17 16 14 13 7 6 11 13 15 15 15 15 15 15 14 16 15 12 12 22 28 32 36
53 53 53 54 52 52 52 52 52 52 54 54 55 51 38 25 26 24 24 23 24 26 20 22 18 13 15 18 19 18 17 18 19 19 18 17 14 14 16 17 14 16 23 29 32
53 52 53 53 54 53 52 52 53 54 54 54 54 47 28 27 27 22 21 21 25 28 27 25 23 23 20 22 17 15 16 15 18 19 21 19 15 15 19 18 17 18 18 24 30
52 52 52 53 53 53 54 53 53 53 53 53 51 46 22 27 23 23 23 19 25 29 27 24 25 19 23 16 14 13 12 11 17 20 20 18 15 19 22 21 19 19 21 21 27
51 51 51 52 52 52 52 52 52 52 50 45 39 29 21 20 22 22 23 26 26 27 24 23 20 17 13 12 9 7 4 6 8 18 14 13 14 18 20 21 21 20 19 21 25
51 50 50 51 51 51 50 45 36 37 31 26 20 21 19 20 23 22 25 25 25 24 20 20 17 15 18 16 14 11 9 10 12 19 18 16 16 18 22 22 25 25 24 23 27
51 50 50 51 51 51 53 39 41 34 23 25 25 25 26 25 19 23 26 23 22 17 19 14 17 20 21 19 16 16 14 14 18 20 20 18 17 19 22 25 24 25 27 30 32
50 51 51 50 51 53 46 46 48 44 22 24 25 23 24 25 25 26 25 20 17 14 10 16 20 21 22 19 19 20 18 22 21 21 21 19 17 19 21 23 25 25 26 27 29
50 51 50 50 49 47 43 48 52 49 20 17 20 23 23 25 25 29 30 24 18 13 15 19 24 22 21 22 24 19 24 25 23 20 15 20 14 20 20 22 24 26 27 28 29
50 50 50 49 44 38 46 52 55 50 17 22 22 29 24 25 26 27 31 25 19 20 22 21 22 24 23 25 26 24 29 26 25 22 19 17 13 21 20 21 23 26 29 31 32
50 50 49 49 50 49 50 53 52 34 19 21 23 25 25 26 27 28 27 28 28 21 22 24 27 28 27 27 27 29 28 26 27 24 19 21 18 21 22 24 24 26 30 32 33
51 51 50 49 42 54 55 48 22 26 24 21 22 24 25 25 27 27 27 28 25 23 23 24 26 29 30 26 29 26 24 22 23 22 21 23 16 26 26 27 27 29 32 35 36
52 52 54 54 53 57 49 32 27 24 19 23 23 24 24 25 28 27 25 25 28 25 21 20 25 27 29 29 27 26 26 26 18 19 18 22 13 24 28 30 31 31 32 33 35
51 52 50 56 58 54 38 31 24 21 23 22 22 22 23 26 26 28 28 27 29 30 25 23 24 29 30 30 29 27 26 27 28 28 26 16 20 28 29 29 30 30 32 32 33
42 40 44 56 57 50 39 30 27 27 25 22 21 25 22 24 25 26 27 30 29 30 30 27 26 26 29 30 31 29 28 26 24 22 13 10 9 19 27 28 29 29 30 31 32
41 34 52 56 52 39 35 30 28 31 30 27 25 25 26 26 26 27 28 30 31 30 28 25 24 25 26 27 25 27 27 27 22 23 20 14 13 22 23 26 28 28 29 31 33
42 34 50 52 34 38 33 30 31 31 34 32 31 29 28 29 29 29 28 32 34 33 29 30 27 21 18 28 31 29 26 24 22 18 22 24 22 25 26 26 27 28 30 33 34
35 40 49 50 39 40 35 33 32 31 31 31 32 33 33 31 31 31 33 37 37 34 33 31 27 18 17 28 29 26 26 24 26 28 22 22 21 24 26 27 27 26 30 32 34
39 39 40 41 38 32 32 30 32 34 34 34 34 33 33 31 33 32 34 36 38 36 35 35 26 22 16 16 18 19 19 20 22 24 24 22 21 22 24 26 27 28 31 34 35
41 40 41 37 37 33 32 31 30 30 33 33 32 31 32 31 31 32 33 35 35 36 35 33 26 26 24 21 19 20 21 21 19 19 20 23 23 24 27 28 30 32 33 33 34
36 39 39 40 36 34 34 30 28 31 31 30 30 31 30 32 26 29 28 26 25 33 31 32 30 31 26 24 21 21 21 20 20 22 23 23 23 28 29 30 32 33 34 34 36
45 45 40 38 36 34 33 31 30 34 36 31 32 29 30 30 34 35 36 34 32 31 32 33 33 29 27 30 29 26 27 21 22 23 25 25 26 28 29 33 34 35 36 36 37

GFSSW_sfc_30mbdewp_018.txt.gz
Dewpoint
55 55 55 54 53 52 52 51 51 52 52 53 54 54 55 56 55 51 36 31 33 36 34 30 28 27 25 16 11 11 7 11 9 10 6 6 5 9 18 22 22 31 35 44 46
54 54 54 54 52 52 52 51 52 52 53 53 53 54 55 56 51 39 35 41 44 43 31 28 25 23 19 11 10 5 6 2 3 4 4 3 4 7 15 17 23 32 43 46 45
55 54 54 54 53 52 52 52 52 52 53 53 53 54 55 55 44 30 37 36 43 47 33 29 18 17 13 9 7 6 5 4 2 5 3 2 2 9 11 12 21 25 41 45 45
54 55 55 54 54 52 52 52 52 53 53 53 53 55 56 52 26 27 35 35 41 42 36 23 16 14 8 6 5 4 3 -0 1 3 1 -0 2 4 6 12 17 24 34 43 43
53 55 54 53 53 52 52 52 52 53 53 53 53 55 53 42 25 27 28 38 40 38 26 18 16 11 6 5 3 3 1 1 3 5 7 8 8 11 7 13 15 26 32 40 41
54 54 53 53 53 53 52 52 53 52 52 53 54 55 50 32 24 24 24 24 26 20 16 15 13 11 3 2 6 7 6 8 9 9 10 8 12 14 11 11 13 23 31 37 40
54 54 53 53 54 52 53 53 52 52 52 54 55 52 43 30 23 22 22 22 23 24 21 19 17 11 11 14 14 14 13 14 15 14 13 15 14 13 15 13 12 19 25 31 35
54 53 53 53 54 53 52 52 52 53 54 54 55 50 37 27 26 22 20 18 21 24 24 21 20 21 20 18 13 13 15 14 16 17 18 16 15 13 16 16 15 14 18 25 31
53 53 53 53 53 54 53 53 54 54 54 54 52 48 32 25 21 21 20 18 20 25 25 22 23 17 17 13 13 15 12 14 18 16 19 16 16 15 18 20 19 18 18 20 26
52 52 52 53 53 53 53 53 53 52 52 48 45 37 26 19 21 19 20 24 22 25 21 21 20 16 16 15 12 12 7 6 9 17 13 12 13 18 20 20 20 19 19 21 22
52 51 52 52 52 52 51 47 39 38 39 27 21 23 17 16 16 19 20 22 25 24 22 18 17 18 18 15 12 9 7 7 14 19 16 11 13 16 20 21 21 22 22 23 36
51 50 51 51 52 52 52 41 38 34 27 24 23 22 21 22 17 20 22 23 21 20 19 13 16 19 18 15 13 12 13 12 16 18 17 13 16 19 21 24 23 23 24 33 34
51 51 50 51 52 52 45 45 45 47 22 21 23 20 24 24 21 21 25 20 19 18 11 20 19 18 17 17 17 16 16 22 20 20 19 17 17 19 22 24 24 27 30 31 32
49 50 51 51 49 45 44 44 49 49 20 16 20 20 22 23 23 25 26 24 17 12 12 20 22 18 18 19 23 17 26 25 21 20 16 19 13 19 21 22 25 27 29 29 30
50 51 50 50 52 40 46 48 51 50 19 20 20 25 21 24 23 24 25 21 19 18 18 20 21 22 22 25 24 23 27 24 23 21 19 16 17 20 21 22 26 28 30 32 34
50 51 50 49 54 48 50 53 50 40 23 19 21 23 20 23 25 25 22 26 24 17 21 23 25 27 26 26 25 26 27 25 25 23 22 18 19 25 22 22 25 28 31 32 34
49 49 49 52 49 52 55 48 25 28 21 20 19 22 22 23 24 25 25 24 25 22 22 23 25 28 27 27 29 26 24 24 26 22 23 24 15 27 26 27 26 29 33 35 36
50 52 54 53 53 57 51 35 29 22 18 19 21 23 23 24 25 25 24 24 26 28 22 20 25 26 28 28 25 25 25 27 22 24 22 19 14 25 28 30 31 32 33 34 35
52 56 52 57 58 55 43 32 27 20 21 20 21 21 23 25 25 26 27 26 28 31 27 21 25 28 28 28 26 27 26 23 26 28 25 16 25 28 29 29 29 30 31 32 33
46 45 43 56 58 52 42 36 29 26 21 21 19 22 20 21 23 24 25 28 26 28 27 25 26 25 26 28 30 26 25 24 26 21 17 12 14 25 28 28 30 28 29 30 31
52 36 54 55 55 40 37 36 27 27 28 22 21 22 23 22 24 25 26 29 30 28 27 25 23 25 24 25 23 26 25 25 22 22 21 18 16 20 22 27 28 28 28 31 33
45 35 52 54 33 34 35 30 30 30 33 31 28 25 26 26 26 27 28 32 32 31 28 27 26 24 19 25 27 25 24 23 24 20 25 24 21 23 25 26 29 30 31 33 34
38 44 51 51 37 41 35 31 30 29 28 29 30 31 31 29 30 29 34 36 36 35 35 31 28 23 21 28 28 22 23 22 26 30 24 20 21 25 28 33 32 30 30 35 35
43 38 38 42 41 35 34 32 32 34 33 32 32 32 31 32 31 31 34 36 37 35 33 36 25 21 20 17 18 17 17 18 18 25 26 25 23 23 25 29 31 30 33 33 34
44 39 34 34 35 34 31 29 30 32 32 32 31 29 30 30 30 31 34 35 35 34 34 32 26 27 25 21 20 18 18 19 18 20 19 21 20 23 28 29 31 34 34 34 34
43 38 40 37 35 33 34 30 29 28 31 29 29 30 31 33 30 30 30 29 27 32 30 32 32 32 26 22 21 20 22 22 21 20 20 23 23 26 33 35 36 36 35 35 36
45 46 41 38 36 35 35 31 29 33 36 31 30 31 34 33 35 35 34 32 29 31 31 34 34 31 27 30 29 28 28 22 23 23 24 23 27 32 33 33 34 35 36 37 36

GFSSW_sfc_30mbdewp_021.txt.gz
Dewpoint
56 56 55 55 55 54 52 52 52 52 53 53 54 54 54 55 55 53 36 37 39 37 34 30 31 32 31 27 25 18 12 9 8 12 11 11 7 11 23 24 38 40 44 45 43
54 55 55 55 55 53 52 52 52 52 53 54 54 54 55 55 52 44 42 35 40 38 29 27 26 28 25 21 21 12 8 3 5 6 4 5 6 8 18 25 42 44 45 44 42
53 54 55 55 55 54 52 52 52 52 53 54 54 54 55 55 48 37 41 36 47 42 31 30 29 27 21 19 12 6 3 1 3 5 4 3 6 11 16 20 39 44 44 44 43
53 53 53 55 55 55 52 52 52 52 53 54 53 54 55 53 32 27 34 41 44 43 37 34 30 19 14 13 8 4 1 1 2 5 1 1 3 4 12 17 31 45 45 45 44
52 52 53 55 54 54 52 52 52 52 53 53 53 54 53 47 37 27 39 43 42 40 35 34 29 16 13 12 5 1 2 2 3 7 8 7 7 8 12 17 29 45 45 44 44
54 54 54 54 54 54 52 52 52 53 53 53 54 55 50 32 30 26 26 40 34 37 33 32 20 14 9 13 5 4 1 3 3 8 10 7 13 14 12 14 28 41 43 43 43
54 54 54 53 53 54 52 52 53 53 52 53 55 54 48 38 30 24 23 21 22 23 24 21 20 18 16 14 15 11 8 9 11 11 12 13 14 13 11 12 22 31 39 40 41
54 54 53 53 53 54 52 52 52 52 53 54 55 52 34 35 24 22 20 19 20 24 26 24 24 20 22 15 12 12 15 13 15 15 15 14 13 14 14 11 18 20 24 36 40
53 53 53 53 53 53 53 52 53 53 54 54 51 50 36 27 19 21 20 20 21 24 25 23 23 22 17 14 13 14 12 16 15 18 18 16 15 16 16 16 14 18 20 25 33
52 52 53 52 53 53 53 54 53 53 52 51 48 42 41 23 21 19 21 21 23 24 22 21 22 20 17 17 13 13 11 17 16 16 15 12 13 17 18 20 21 20 19 27 38
52 51 52 52 52 53 51 48 41 40 46 34 32 36 21 17 19 18 20 21 25 24 22 22 20 19 16 15 12 12 13 17 18 18 15 15 11 20 23 22 21 28 36 38 41
51 51 51 52 52 52 51 49 40 41 30 35 32 28 21 20 17 19 23 23 23 23 24 21 19 18 17 15 16 13 18 21 19 19 16 16 17 22 24 24 27 34 36 38 40
51 51 51 52 52 50 47 48 48 49 29 23 23 20 23 25 22 20 24 26 21 20 22 20 18 17 17 23 21 24 23 22 21 21 21 19 18 22 24 27 31 33 35 36 39
51 52 51 52 47 50 44 46 51 53 22 19 20 20 23 24 23 25 24 25 19 20 23 22 20 20 20 24 23 25 28 26 23 21 19 19 16 21 23 27 28 30 32 34 37
50 52 50 52 47 51 47 50 52 51 18 16 23 23 22 24 24 24 23 27 21 19 22 20 23 26 26 24 24 25 27 26 25 23 23 22 19 21 24 26 29 31 34 35 37
50 52 50 48 50 54 55 56 50 40 20 21 22 23 18 24 25 22 22 26 25 22 24 23 28 27 26 27 26 25 28 28 28 25 23 30 23 26 23 27 29 31 33 35 36
50 50 49 52 53 56 57 50 30 30 25 19 21 21 23 23 24 23 22 25 27 21 21 23 27 29 28 27 28 27 26 26 23 25 24 30 25 30 29 28 30 33 36 37 37
50 49 53 58 60 58 54 38 30 24 19 19 22 24 23 24 25 25 25 26 29 32 28 25 25 27 29 27 25 28 26 22 22 21 22 27 24 27 31 32 34 35 35 36 36
52 54 56 58 59 56 47 37 33 26 21 20 22 23 23 25 26 27 27 27 27 28 27 28 25 28 28 27 27 27 23 23 27 30 24 24 27 29 30 30 31 32 34 35 36
51 52 50 58 58 53 43 39 31 26 24 22 20 23 22 22 24 27 27 30 27 28 28 25 24 25 25 27 29 26 24 25 24 20 18 18 26 28 29 31 33 31 30 32 35
51 40 54 59 54 44 39 41 28 27 33 29 25 21 25 22 24 26 28 30 31 29 26 28 28 24 23 24 24 26 26 25 24 24 20 19 18 23 31 35 34 31 33 35 36
51 37 55 57 31 39 37 36 29 29 32 31 31 25 27 25 28 29 32 32 34 35 28 26 27 22 25 25 26 25 26 26 21 21 27 25 22 27 32 32 32 32 35 35 35
45 47 55 56 29 33 36 31 30 29 30 29 31 32 31 31 30 35 36 37 38 35 34 29 25 22 25 29 29 21 24 23 31 28 21 19 18 27 30 32 35 33 35 35 35
49 39 46 47 45 41 36 31 32 34 33 32 32 32 32 32 32 35 36 37 36 32 32 36 25 23 22 20 19 17 18 18 25 26 25 25 24 25 32 34 34 35 35 35 35
48 40 37 32 30 37 37 33 33 32 33 33 31 31 32 30 32 35 37 36 37 32 34 32 28 28 27 23 22 20 20 21 20 20 20 20 24 32 34 35 36 36 36 36 36
46 45 39 34 29 35 37 32 33 32 32 31 30 31 33 32 34 34 34 33 33 31 32 34 32 28 21 29 25 21 24 26 23 23 24 24 27 34 35 35 34 36 37 36 35
49 47 47 42 32 36 34 32 32 33 34 35 33 36 35 35 37 38 36 34 35 32 33 36 32 28 21 30 29 26 27 23 24 25 25 23 29 34 34 33 35 36 36 35 35

GFSSW_sfc_30mbdewp_024.txt.gz
Dewpoint
56 55 56 56 56 56 55 53 52 52 53 53 54 54 54 55 55 52 34 29 40 40 31 31 32 33 33 30 25 18 16 12 10 16 14 12 21 23 34 42 40 42 41 40 43
53 53 54 55 55 55 55 53 52 51 52 53 54 54 54 55 52 44 41 39 43 42 29 28 24 28 28 24 23 18 12 5 8 11 7 6 16 18 34 42 44 44 44 42 43
53 53 53 53 55 55 55 53 52 51 52 54 54 54 53 54 47 33 41 42 43 41 30 29 27 27 25 22 19 11 5 2 4 6 6 6 8 16 36 40 44 43 42 40 40
52 53 52 53 54 55 55 53 52 52 52 54 54 53 54 53 28 29 36 45 47 44 33 32 30 29 25 19 16 1 2 2 7 4 4 7 8 8 18 36 45 43 42 41 41
52 52 52 52 54 55 55 53 52 51 52 53 53 53 53 46 34 34 37 47 49 41 34 30 32 24 17 13 5 1 1 2 8 9 4 6 8 12 15 41 45 43 43 42 42
52 53 54 54 54 54 54 52 51 51 53 53 53 53 48 31 34 30 36 45 37 36 34 35 29 23 19 13 3 2 2 2 5 9 10 11 12 12 17 44 44 43 43 44 43
55 55 54 54 54 53 54 52 51 52 53 53 53 54 49 34 38 35 31 27 32 34 27 25 24 20 19 12 9 6 5 6 5 10 10 15 14 12 17 44 44 44 44 44 44
54 54 54 53 53 53 53 51 51 53 53 53 55 53 33 37 36 25 21 19 22 26 26 25 23 21 17 15 14 11 12 10 12 12 14 14 13 15 15 35 43 43 43 44 44
53 53 53 53 53 53 53 52 52 53 53 54 51 51 25 38 23 20 20 19 23 23 24 21 23 23 17 12 12 15 11 14 15 15 15 14 14 17 12 24 31 37 37 38 40
53 52 53 53 52 53 53 53 53 53 53 52 49 41 36 29 20 19 20 20 23 25 24 21 23 20 18 15 10 11 14 16 15 16 17 15 14 17 14 13 18 23 38 42 44
52 52 52 52 52 52 51 48 40 40 46 26 29 36 31 29 19 18 19 20 24 25 21 25 19 17 15 16 14 14 18 17 17 18 15 15 18 20 21 23 32 39 41 41 41
51 52 51 52 52 52 50 45 39 45 22 31 37 36 34 17 16 18 21 22 23 22 24 22 19 19 18 22 24 20 18 18 19 21 16 19 19 23 27 33 38 39 40 40 41
51 50 51 52 52 49 44 45 49 47 37 24 29 28 23 25 20 19 24 26 23 21 22 20 18 18 24 23 23 27 23 22 21 22 22 20 20 28 32 35 37 38 40 41 41
51 51 51 52 45 47 38 38 48 48 25 20 20 20 23 26 22 25 24 25 23 22 22 20 21 24 25 23 24 26 27 25 22 20 11 19 17 23 29 31 33 35 39 41 41
51 51 51 50 46 49 49 55 54 47 14 18 22 22 23 24 24 21 24 27 21 19 22 23 26 26 25 24 24 24 26 25 25 23 24 24 19 22 29 30 33 35 38 40 41
51 52 51 49 49 50 56 56 44 31 17 20 23 21 19 23 23 23 22 26 27 24 24 25 29 27 26 27 26 25 27 30 28 26 22 28 22 22 26 30 32 35 37 39 40
51 52 49 52 52 57 57 43 25 29 24 19 21 21 21 23 23 22 26 28 28 21 22 26 28 28 29 28 28 26 28 24 23 25 22 31 28 28 31 31 32 35 36 37 38
51 52 50 54 59 56 49 32 29 28 21 21 24 23 22 25 25 26 26 27 28 32 24 25 24 27 28 26 25 27 26 22 21 18 19 25 25 29 34 35 36 36 36 36 36
52 51 56 57 58 54 41 29 33 27 22 21 24 23 24 25 25 27 27 26 27 28 26 26 24 28 26 27 28 26 23 26 26 28 23 26 27 29 32 33 34 35 36 35 36
49 50 47 57 57 47 42 38 34 29 29 23 22 24 22 23 25 27 28 30 27 28 29 27 24 26 25 29 29 22 25 25 23 17 16 20 26 28 31 31 32 32 34 36 37
51 33 47 58 48 38 35 40 32 31 33 27 25 22 24 23 24 28 29 31 32 30 26 30 26 23 28 24 24 25 25 25 24 24 17 18 18 27 31 35 32 34 35 36 37
49 33 54 49 25 39 35 38 30 29 32 31 31 30 25 26 31 32 31 32 37 36 24 28 26 23 25 25 26 25 26 25 16 19 25 23 20 31 32 32 32 35 35 36 37
43 47 55 48 21 31 35 32 30 29 29 29 31 32 33 31 32 36 35 38 34 34 32 29 24 20 25 29 29 23 25 29 28 27 20 16 17 31 34 34 35 35 35 36 36
47 38 44 48 43 32 34 31 31 34 33 33 32 32 32 32 36 35 35 37 33 30 33 36 27 23 18 23 22 17 19 26 26 22 22 21 22 27 33 34 35 35 35 36 36
48 39 33 27 33 39 38 33 32 31 33 33 31 31 32 31 34 35 37 36 36 32 32 31 25 28 25 25 23 21 20 21 20 22 20 20 24 32 35 35 35 36 36 36 35
45 44 40 29 28 32 38 35 32 33 32 31 30 32 33 32 33 34 34 34 30 31 32 35 29 25 18 29 27 20 19 25 26 23 24 28 31 35 36 34 35 37 36 35 35
48 49 38 42 29 31 35 34 34 34 35 37 36 35 34 35 37 37 37 36 35 32 35 33 30 22 9 29 25 17 24 25 24 26 25 23 29 34 33 34 36 36 35 35 34

GFSSW_sfc_30mbdewp_027.txt.gz
Dewpoint
55 54 54 54 55 56 56 56 54 51 51 52 53 53 54 54 54 52 38 30 38 39 33 32 30 32 33 30 25 19 16 12 10 30 33 34 27 29 41 43 43 43 42 50 51
53 53 53 53 53 54 55 55 54 51 51 51 52 54 54 53 51 44 41 40 44 42 28 27 26 30 28 27 24 20 16 13 13 18 28 25 35 40 43 43 43 40 42 47 50
53 53 53 53 53 53 55 55 53 51 51 51 52 54 53 53 45 29 38 45 46 41 30 29 28 27 26 23 19 16 12 3 6 12 14 21 32 30 42 42 42 39 42 45 48
52 52 52 52 52 52 54 55 53 51 51 51 53 54 53 53 24 33 42 53 48 36 31 29 28 27 27 22 20 6 4 4 6 6 7 11 13 35 26 40 43 40 42 44 45
52 52 52 52 52 52 54 55 53 51 51 51 53 52 52 44 32 33 51 54 44 35 29 29 30 27 20 16 12 2 2 7 7 5 4 7 11 13 18 43 43 41 41 42 42
52 51 52 52 53 54 55 54 51 51 51 53 53 52 48 26 32 36 43 41 38 36 33 31 27 30 21 15 2 3 3 6 9 8 10 11 13 15 31 45 42 40 40 40 41
53 54 54 55 54 54 54 53 50 51 52 53 52 53 47 27 37 38 36 34 35 34 30 34 33 29 19 12 8 5 2 5 8 8 10 15 12 15 35 44 42 41 41 41 41
55 54 54 54 54 53 53 53 51 51 53 53 54 53 32 36 39 35 26 22 26 34 30 25 25 21 15 15 15 11 12 9 10 11 13 12 6 14 40 43 43 42 42 43 44
54 54 54 53 53 53 53 52 51 52 53 54 51 50 23 32 29 24 21 19 23 25 25 22 24 21 18 12 12 15 10 11 14 14 14 12 10 15 36 44 43 43 40 42 45
53 53 53 53 52 52 53 53 53 53 53 53 50 40 31 23 25 20 20 21 23 25 22 23 23 18 17 12 3 8 12 14 13 15 15 13 12 17 24 36 34 39 43 44 44
52 52 52 52 52 52 52 49 42 40 47 28 27 30 35 28 20 19 19 21 26 25 22 24 19 16 15 16 15 15 16 15 17 18 16 16 19 27 22 30 36 41 42 43 44
52 52 52 52 52 52 51 42 37 46 30 37 38 37 36 34 19 17 22 21 23 21 24 21 19 20 23 26 20 20 17 18 21 22 17 19 26 34 35 38 40 41 41 42 42
51 51 51 52 52 50 44 43 49 43 37 30 26 24 25 29 21 18 24 26 23 21 21 19 19 23 23 25 23 26 22 22 20 22 21 21 23 32 36 39 40 41 41 41 41
51 51 51 52 45 44 35 39 50 43 24 21 22 23 23 26 22 25 25 24 23 20 21 20 27 25 23 22 26 23 27 24 22 19 14 20 19 29 31 35 37 40 40 41 41
51 51 51 50 46 48 46 55 53 42 13 17 21 21 24 24 21 20 24 27 20 22 21 24 26 25 24 23 24 23 27 25 24 22 23 26 22 25 31 33 36 38 40 41 42
51 51 52 49 48 49 55 52 42 29 13 18 23 19 22 24 23 23 23 30 27 25 26 26 28 26 26 27 26 26 28 30 30 26 22 29 21 25 28 32 35 37 40 41 41
51 51 50 51 52 57 55 38 22 27 24 20 20 20 21 23 22 21 28 28 24 21 24 27 27 28 29 27 28 27 28 23 23 23 22 27 26 26 28 31 35 37 38 40 41
51 51 49 49 58 56 43 27 23 29 21 23 22 21 22 25 26 27 28 26 28 27 25 24 24 27 27 26 25 26 26 22 21 21 20 27 25 28 34 34 35 37 38 38 39
51 49 54 56 57 50 34 20 30 30 22 22 23 22 24 25 27 27 27 26 26 28 25 25 23 28 26 27 28 27 23 26 26 27 23 26 28 31 34 34 35 35 36 36 37
49 50 48 57 54 45 35 31 36 32 27 25 21 24 22 23 26 27 28 30 26 27 29 28 24 26 25 29 27 22 28 23 21 14 16 21 26 27 31 34 35 35 35 37 38
49 30 45 57 42 32 25 34 39 30 32 24 24 25 24 23 27 28 29 32 34 31 28 30 24 22 28 24 25 25 24 25 25 24 15 18 22 24 31 33 32 35 36 37 37
45 28 52 42 24 37 32 38 35 28 32 31 32 28 26 28 31 30 30 32 37 35 23 29 25 23 25 26 28 26 25 23 10 16 24 20 19 28 33 34 34 35 36 38 38
41 49 54 38 19 30 32 35 31 28 30 30 30 33 33 33 30 35 35 37 33 33 29 29 24 22 23 26 26 24 26 29 26 25 20 15 15 32 33 33 35 35 36 37 36
44 40 44 46 37 26 28 32 31 34 33 33 32 33 32 34 37 34 35 37 31 29 34 33 28 21 13 20 24 19 20 28 24 21 21 19 19 29 33 33 34 35 36 36 36
47 36 37 33 37 40 34 33 31 30 33 32 31 32 31 32 34 34 36 35 32 32 32 30 24 27 25 26 23 19 19 24 23 22 19 19 23 25 33 34 35 35 36 36 35
45 41 39 30 30 38 37 35 32 32 32 31 30 34 33 31 31 33 34 32 25 32 33 34 26 23 23 29 27 21 21 20 20 22 24 24 26 35 36 36 36 36 36 35 34
47 49 36 37 31 33 36 36 33 34 37 37 34 34 32 35 37 38 37 36 33 31 34 30 28 21 12 28 21 16 19 21 24 25 24 24 28 35 33 34 36 36 36 35 34

GFSSW_sfc_30mbdewp_030.txt.gz
Dewpoint
54 53 53 53 53 53 54 55 55 55 51 51 51 51 52 53 52 52 39 32 38 41 35 30 28 31 32 30 26 19 15 11 11 32 37 35 35 36 43 41 43 43 53 56 59
53 53 53 53 53 53 52 54 55 54 51 50 50 51 52 52 50 44 41 42 43 41 27 27 27 31 28 27 25 20 16 13 14 32 33 33 33 35 42 42 41 44 50 56 58
53 53 53 53 53 52 52 52 54 52 50 50 50 52 52 52 45 28 42 45 46 37 29 28 27 27 26 24 21 19 16 12 6 20 30 29 34 39 42 41 41 45 50 54 55
55 54 53 52 52 52 52 52 55 52 50 50 51 52 52 51 21 31 47 51 49 36 30 28 27 26 27 23 21 15 10 9 6 11 26 28 29 40 39 37 42 47 49 51 51
55 55 52 52 52 51 51 52 55 52 50 50 51 51 51 45 32 46 56 55 44 32 29 28 26 25 23 20 16 13 3 8 5 8 18 13 22 35 26 43 41 46 46 47 46
55 54 51 51 51 52 52 53 53 50 50 50 52 51 48 27 31 45 47 43 37 33 31 29 28 29 24 17 6 5 4 6 7 7 10 11 14 17 29 42 40 44 44 46 46
55 54 53 54 53 53 54 54 53 50 50 51 52 51 48 28 35 39 40 35 37 33 31 31 30 26 22 15 8 6 3 6 8 9 13 13 12 15 40 41 40 41 43 43 43
55 55 54 54 54 54 54 53 51 50 51 53 53 52 34 35 39 37 34 26 35 35 32 30 34 28 18 14 15 10 11 2 8 10 14 10 6 14 44 41 40 40 40 42 44
54 54 53 53 53 53 53 53 50 50 52 54 51 50 27 31 29 28 26 19 24 30 32 26 25 20 15 11 11 14 9 11 9 13 13 11 8 16 44 42 42 42 42 44 46
53 53 53 53 53 53 53 52 52 52 52 53 51 41 32 22 31 20 20 21 24 25 22 23 22 16 16 9 7 7 11 12 13 15 13 13 19 30 30 43 40 41 44 44 45
53 53 52 52 53 52 52 49 41 40 47 32 28 28 34 33 25 19 19 22 26 24 21 24 17 14 15 16 14 14 14 13 16 18 17 29 31 33 30 38 40 42 43 44 44
52 52 52 52 52 52 50 41 34 41 35 39 37 37 37 34 25 17 23 22 23 20 24 21 18 19 26 23 20 19 17 18 21 21 19 28 31 37 37 39 41 42 43 43 43
52 52 52 52 52 51 47 43 48 44 37 32 35 29 22 31 24 18 24 25 22 21 21 19 20 24 25 25 21 25 20 21 20 21 22 23 25 34 37 40 41 41 42 41 43
52 51 52 52 47 44 38 38 51 43 23 21 24 24 24 26 22 24 26 24 23 20 20 24 27 23 22 23 25 21 27 23 21 17 16 20 16 29 34 38 40 40 41 41 41
51 51 52 49 46 41 40 55 53 37 15 19 21 21 25 22 21 21 29 25 20 22 21 24 25 24 23 23 25 24 27 25 24 22 23 25 20 26 35 37 39 40 40 40 42
51 51 52 49 48 49 54 50 38 27 15 19 22 19 22 24 23 23 28 30 27 27 27 27 28 27 25 28 26 27 29 29 29 26 21 29 21 23 32 35 37 39 40 41 42
51 51 50 48 50 57 53 36 23 23 24 20 19 20 22 23 22 25 27 27 22 22 24 27 27 28 29 27 28 28 27 22 23 23 22 27 25 23 29 33 37 38 40 41 41
51 51 50 50 54 55 40 23 19 27 22 22 21 22 21 24 27 28 27 26 28 25 26 23 21 26 27 26 26 25 26 23 20 21 22 27 24 26 34 33 36 38 39 40 40
51 50 50 55 51 49 29 19 22 30 24 22 22 21 24 25 26 27 27 26 26 28 22 24 23 28 26 27 28 26 21 26 25 26 22 25 28 32 34 34 36 37 38 38 39
49 46 50 56 54 44 26 21 34 36 28 23 18 23 23 24 25 27 27 30 26 28 30 28 24 26 25 29 28 24 29 21 21 11 11 20 25 26 32 33 35 36 37 37 38
45 38 45 54 40 30 23 22 38 37 32 22 23 25 24 24 27 28 28 32 33 32 29 29 23 22 27 24 25 26 23 24 25 22 12 12 20 27 32 34 34 35 36 37 38
38 30 52 39 26 34 28 35 39 29 31 32 29 26 25 28 30 29 28 31 37 35 25 29 24 22 25 26 30 26 24 21 8 13 23 20 16 27 32 34 35 35 36 38 38
44 49 52 35 22 28 31 34 33 28 31 31 31 31 34 33 29 33 34 36 33 32 27 27 24 22 21 21 26 24 27 26 23 24 20 16 11 32 34 34 35 35 37 37 36
44 40 44 41 34 25 25 32 31 34 33 32 33 34 34 35 36 34 34 36 31 30 35 29 26 22 16 17 23 20 25 26 22 18 18 18 16 28 32 33 34 36 37 36 36
43 39 40 35 36 26 27 32 31 30 33 32 31 32 32 32 34 33 36 34 30 33 33 27 22 26 26 26 23 19 20 26 22 21 16 16 20 22 30 33 34 36 36 36 35
45 36 34 34 40 33 32 32 30 32 33 30 29 34 33 31 30 32 33 31 22 32 32 32 25 23 25 29 26 21 21 21 23 22 24 23 21 26 34 35 35 35 36 35 35
48 46 33 35 38 32 33 34 33 34 37 36 33 33 32 34 37 38 36 35 32 29 31 27 26 22 16 25 19 14 18 20 22 24 21 16 20 34 34 35 35 35 36 35 35

GFSSW_sfc_30mbdewp_033.txt.gz
Dewpoint
53 53 53 53 53 53 52 52 53 55 55 51 50 50 51 52 51 52 40 32 38 44 35 29 28 30 32 29 26 20 15 13 22 34 39 42 40 42 44 42 44 43 55 58 62
54 52 53 53 52 52 52 52 52 53 53 51 50 50 51 51 50 44 42 44 44 42 26 27 27 31 28 28 26 20 16 13 15 34 32 34 37 40 43 42 41 48 57 61 61
54 53 53 52 52 53 52 52 51 52 52 50 50 50 51 51 44 26 42 49 46 41 27 28 27 28 26 25 24 21 17 16 13 34 36 33 35 43 41 41 41 47 56 60 59
55 55 55 53 52 52 51 51 51 52 52 50 50 51 51 50 20 30 52 53 50 33 30 29 27 25 26 24 22 16 11 11 6 19 28 33 36 41 41 38 44 51 57 58 58
55 55 55 52 52 52 51 51 52 52 51 50 50 51 51 43 31 45 57 56 45 32 30 27 25 24 26 25 17 16 7 8 7 12 26 30 37 40 36 42 48 53 55 55 55
54 55 54 52 51 51 51 51 51 52 50 49 50 51 47 25 30 49 47 44 37 31 30 29 25 26 26 18 14 11 6 7 8 14 15 25 24 34 33 43 48 51 50 50 50
54 54 55 54 53 52 52 53 54 53 50 50 51 51 49 28 34 45 41 38 37 33 30 30 30 28 26 18 10 7 7 8 10 12 15 15 15 15 40 42 47 47 46 46 44
54 54 54 55 54 54 54 54 53 50 49 50 51 51 34 37 40 39 38 34 36 36 32 32 31 28 25 16 16 10 11 5 10 12 14 11 9 18 43 40 43 44 44 44 43
54 54 54 54 53 53 53 53 52 50 50 53 51 50 26 34 28 29 29 20 31 35 34 31 31 25 16 13 12 14 4 9 10 14 13 10 14 29 44 40 40 41 42 43 45
54 53 53 53 53 53 53 52 52 51 51 52 51 43 31 24 31 25 21 21 26 27 26 24 23 18 15 9 6 10 11 13 10 14 17 17 27 32 31 42 41 42 44 44 45
53 53 53 53 53 52 51 50 45 42 48 34 29 31 30 34 31 19 19 23 26 25 21 24 17 10 11 13 9 11 13 13 16 19 26 31 33 34 35 41 42 43 44 44 45
53 52 53 53 53 52 49 44 35 36 32 40 39 37 37 36 25 18 23 22 23 21 23 20 16 19 25 20 19 18 18 19 21 21 25 30 32 37 38 40 42 43 44 44 46
52 52 52 52 52 51 48 45 47 44 38 32 38 32 25 32 23 20 23 25 22 21 21 19 19 24 25 24 22 23 21 21 20 22 24 25 25 33 37 40 41 43 44 46 49
52 52 52 52 47 47 43 42 43 43 24 21 25 25 27 27 21 24 26 24 23 21 23 25 27 23 24 24 24 22 26 23 20 18 16 22 13 28 35 38 41 42 45 46 46
52 52 52 50 42 40 37 52 47 36 10 21 22 23 25 22 22 22 31 24 21 22 22 24 25 24 23 23 24 26 27 25 23 23 23 25 18 23 36 36 40 42 43 43 44
52 52 52 50 49 47 52 49 39 28 15 19 21 20 23 23 22 25 29 28 27 28 28 27 29 27 26 28 26 31 29 29 29 26 20 28 22 20 32 35 39 41 41 41 43
52 52 51 48 45 56 52 39 25 20 25 20 19 21 23 22 23 26 27 27 24 22 24 27 27 28 29 27 28 29 26 20 19 23 21 27 26 24 29 34 40 40 40 41 43
51 52 51 50 52 53 39 26 20 24 23 22 21 23 22 24 27 28 27 27 28 26 26 22 18 25 27 27 26 26 27 21 14 21 24 26 25 26 34 33 40 40 40 41 42
51 50 48 49 50 48 31 22 22 25 26 22 22 21 23 26 26 27 27 26 27 28 21 23 23 27 26 28 28 26 20 27 25 26 22 24 27 30 34 34 37 38 40 40 41
48 47 46 55 52 41 27 21 25 34 29 22 17 23 23 25 25 26 26 29 27 28 30 27 23 26 26 28 28 26 29 21 23 10 9 17 22 23 31 33 35 37 39 40 40
47 42 46 55 42 33 25 23 33 40 33 22 22 24 25 25 27 26 27 31 32 30 30 28 24 23 27 25 25 26 24 24 25 22 7 7 11 29 30 33 35 37 38 39 39
42 34 52 42 30 32 27 28 40 32 32 31 27 26 25 28 29 29 27 30 36 34 27 28 24 23 25 26 29 27 24 23 12 12 23 20 13 25 31 34 36 37 37 38 39
37 48 52 35 27 27 31 33 34 29 31 31 31 30 34 32 28 32 33 34 34 29 28 27 25 22 22 22 26 25 27 23 22 25 20 16 7 28 34 34 36 36 37 38 38
46 39 44 36 33 27 29 28 30 34 33 33 34 35 35 33 36 33 34 35 31 31 33 28 26 22 20 18 23 22 27 24 21 16 16 19 15 20 31 33 35 36 38 37 36
42 40 42 32 28 26 25 30 29 30 33 32 32 32 32 32 33 33 35 30 31 35 33 27 22 24 25 26 24 19 22 26 22 21 14 14 18 19 23 32 35 37 37 36 35
40 36 35 35 32 27 31 32 30 33 32 30 31 34 32 31 30 31 33 29 22 33 32 31 24 24 24 28 26 22 21 22 26 24 23 22 21 24 28 34 35 36 36 36 35
49 42 32 35 35 26 28 34 31 35 37 36 33 33 32 34 37 37 36 35 31 29 30 27 25 23 16 23 19 18 20 21 22 23 23 20 21 32 32 33 34 36 36 36 36

GFSSW_sfc_30mbdewp_036.txt.gz
Dewpoint
54 53 52 54 52 53 52 52 52 53 53 53 51 50 50 51 51 48 39 31 38 41 39 29 26 25 23 21 25 21 13 19 31 36 38 39 38 39 39 41 44 47 52 57 63
55 54 53 53 53 53 52 52 52 52 52 52 51 50 50 51 48 42 36 42 45 42 25 24 14 23 18 19 23 17 16 14 19 30 31 35 33 37 37 39 42 48 57 61 62
55 55 53 53 54 53 52 52 52 52 52 52 50 50 51 51 45 24 43 45 48 41 24 27 24 23 17 20 20 17 16 15 14 27 30 32 34 37 37 37 41 43 57 60 61
55 55 55 55 53 53 51 52 52 51 52 52 50 50 51 50 21 29 54 55 50 39 30 28 24 21 14 15 17 18 16 14 8 29 30 29 34 37 38 36 41 43 56 60 59
55 54 55 55 53 52 51 52 51 51 52 50 50 50 50 43 32 46 54 55 42 31 31 27 22 18 12 17 19 17 14 10 12 24 30 32 33 35 37 41 45 52 57 55 55
54 54 54 55 53 52 51 51 51 52 52 49 50 51 48 33 26 44 46 41 32 29 29 29 22 22 25 22 18 15 10 7 9 17 29 30 35 38 39 45 50 54 52 47 44
53 53 54 55 55 52 52 52 52 53 51 49 51 50 47 34 32 42 40 35 35 30 28 29 27 25 27 23 9 10 8 13 17 23 24 29 27 21 38 44 48 47 46 43 37
53 53 54 54 54 54 54 54 53 51 49 50 52 50 38 34 35 36 35 35 36 33 31 32 31 27 26 19 12 7 8 10 16 21 17 23 13 23 39 40 42 42 43 43 41
53 53 54 53 53 53 53 53 52 50 50 53 51 50 32 34 30 28 32 25 33 34 34 33 31 27 23 15 8 10 3 5 10 13 18 12 12 26 40 38 41 42 42 42 41
52 53 54 53 53 53 53 52 51 51 51 51 50 47 38 24 29 29 24 24 29 31 30 29 26 18 16 11 4 8 2 4 4 11 13 11 22 26 40 37 38 41 42 42 42
52 53 53 53 53 53 51 49 45 43 46 35 30 34 28 30 31 22 20 27 30 26 20 25 20 11 10 11 11 8 13 10 11 19 15 16 21 26 35 40 38 39 41 42 44
52 53 52 53 53 52 50 40 35 44 33 37 36 36 33 33 26 20 23 20 22 17 25 22 16 21 23 19 16 15 14 17 20 19 20 24 25 30 32 38 39 40 41 42 44
52 52 52 53 53 51 47 40 47 44 41 32 35 31 26 31 23 19 22 24 20 19 22 16 22 26 21 20 19 21 18 20 18 21 24 24 24 30 34 38 41 43 43 44 45
52 52 52 52 48 47 44 41 43 45 29 21 25 26 25 29 21 23 26 23 24 19 24 23 26 25 23 22 23 19 24 22 20 18 13 22 11 26 32 33 37 41 44 45 48
52 52 52 51 45 41 39 39 47 46 11 18 23 26 27 24 20 24 31 25 18 22 24 24 24 23 21 24 25 25 25 23 22 20 21 20 15 20 31 32 34 39 43 47 49
52 52 52 50 49 46 52 54 49 34 17 20 22 22 23 23 22 26 27 28 29 26 26 26 28 27 26 28 27 30 28 28 26 23 17 19 20 7 17 27 35 39 45 47 46
51 52 52 48 39 57 53 49 31 22 23 20 19 21 20 21 23 24 25 23 21 22 23 25 26 28 29 27 30 28 22 14 16 18 14 27 21 12 27 31 35 40 44 44 44
51 52 52 48 48 54 51 39 22 16 20 23 20 19 18 22 24 27 26 22 27 25 21 17 20 25 28 27 23 24 21 14 6 12 15 26 20 23 32 32 37 40 43 42 42
51 51 49 49 51 52 42 32 21 24 23 21 21 18 22 23 21 25 26 23 26 28 17 20 21 26 28 29 27 25 21 28 26 27 23 18 23 27 32 32 37 40 41 40 39
48 48 45 49 51 47 40 29 24 32 26 22 17 18 19 21 19 22 25 28 28 30 32 27 22 25 27 28 29 28 27 22 23 16 9 10 14 11 29 31 34 39 40 38 38
46 40 48 54 51 45 34 27 27 37 32 21 17 22 21 24 20 18 24 29 30 29 31 28 24 26 28 24 22 27 25 24 22 22 9 5 2 25 26 30 32 37 38 37 38
43 36 56 53 43 43 31 28 34 31 37 28 24 23 23 26 26 21 22 25 34 30 28 30 28 26 25 27 29 27 25 23 13 15 23 22 8 22 29 33 34 34 37 37 39
40 44 53 47 37 37 33 30 37 29 31 30 28 28 31 28 26 30 31 36 36 31 30 30 27 24 24 25 28 25 26 24 24 25 19 20 6 23 29 31 33 35 36 38 40
39 38 49 43 36 32 30 28 31 35 33 34 34 35 34 32 35 34 34 35 34 33 31 29 29 24 18 20 24 25 26 25 21 19 13 16 6 16 23 27 30 34 37 38 39
40 37 41 39 34 32 29 27 29 32 34 34 33 31 31 32 33 34 35 31 34 35 35 31 25 27 25 25 24 21 22 24 20 18 17 11 12 8 15 20 25 33 37 37 38
40 39 40 36 32 31 30 28 28 33 33 31 31 34 34 32 29 32 33 30 30 34 33 32 27 28 26 27 25 23 22 21 23 20 21 19 17 19 22 26 30 35 37 37 37
50 42 36 37 31 29 28 31 28 36 38 36 35 35 35 36 38 38 37 34 31 33 33 31 30 25 19 23 22 20 23 21 20 24 23 19 20 22 25 27 28 32 36 36 37

GFSSW_sfc_30mbdewp_039.txt.gz
Dewpoint
55 53 53 54 54 53 53 53 52 52 52 53 52 52 51 51 51 46 40 30 35 41 39 29 24 23 20 15 16 17 14 9 29 34 38 40 36 37 38 36 40 46 48 55 61
55 55 54 54 54 54 53 52 53 52 52 52 52 51 51 51 48 37 32 41 41 41 28 24 19 16 13 13 15 13 10 11 34 41 43 41 36 33 33 31 33 45 53 59 61
54 55 55 55 55 54 53 52 52 52 52 52 53 51 51 51 42 25 43 42 41 41 27 25 15 13 12 12 15 14 13 18 17 30 41 31 30 33 31 33 37 41 54 59 60
55 55 55 55 55 54 53 52 51 51 52 53 52 51 51 49 27 34 54 48 45 37 28 24 17 15 13 11 13 13 14 17 15 19 30 30 31 32 36 45 36 41 56 60 58
54 55 54 54 55 54 52 51 51 51 52 52 50 50 50 41 29 46 52 58 41 35 27 21 16 15 12 9 11 13 16 12 16 22 28 29 30 31 35 33 33 48 56 56 56
54 54 54 54 55 55 52 52 51 51 53 51 50 51 48 32 24 35 39 39 27 30 24 24 19 16 19 19 17 16 15 13 22 26 28 28 30 31 36 37 42 51 52 51 51
54 53 53 54 55 55 54 52 51 52 52 50 50 49 43 34 28 36 38 32 31 28 25 24 23 23 24 22 15 12 11 13 14 21 26 29 31 35 37 38 43 48 47 45 42
54 53 53 53 54 54 54 54 53 52 50 50 51 48 36 32 32 31 35 33 33 33 29 30 29 26 27 24 13 11 11 14 17 22 24 26 19 28 35 37 37 38 38 34 33
53 53 52 53 53 53 53 53 53 51 49 51 51 47 34 33 27 26 28 28 30 31 31 31 31 27 25 21 9 8 7 11 16 19 18 23 15 25 32 34 35 35 35 33 32
53 52 52 53 53 53 53 52 51 50 50 49 47 45 41 25 24 27 26 26 30 31 31 29 28 26 22 16 11 9 10 8 7 11 14 10 14 20 29 32 35 36 36 37 36
52 52 53 53 53 53 51 48 44 44 43 32 31 29 26 28 28 25 22 23 29 28 24 27 22 17 14 15 13 10 5 2 5 7 8 7 15 21 29 29 32 36 37 38 38
52 52 53 52 53 53 52 39 34 44 37 33 30 31 31 30 25 21 20 21 25 22 19 21 18 17 15 13 11 7 12 11 13 10 11 7 12 19 25 27 29 32 36 39 40
52 52 52 53 53 51 45 40 43 45 40 28 25 27 28 26 22 19 20 19 22 21 17 22 22 22 15 13 12 12 14 20 15 16 13 15 15 22 25 30 33 34 35 38 41
51 52 52 53 49 44 43 42 42 45 35 24 26 25 25 26 22 20 21 20 22 20 21 28 27 20 15 13 15 17 21 18 16 16 12 17 10 18 26 30 35 37 39 38 41
51 52 52 51 49 42 41 37 43 51 22 17 18 24 21 22 18 19 24 20 18 17 19 20 20 18 14 19 22 25 23 19 15 12 16 16 10 20 25 26 30 34 39 41 43
51 52 52 51 49 46 47 44 47 37 25 16 20 22 21 21 18 17 20 21 24 19 16 30 26 22 23 25 23 26 23 22 19 14 15 14 13 11 20 22 27 33 38 42 46
51 52 52 48 41 46 48 51 36 26 19 15 18 20 19 19 17 17 16 18 15 15 18 21 21 26 26 22 25 23 20 17 17 14 13 21 17 12 20 27 27 34 39 44 46
51 52 52 48 47 55 51 45 28 21 20 18 17 18 17 17 17 16 15 14 14 18 16 16 20 23 25 23 22 22 19 16 10 8 9 21 10 19 29 30 32 37 40 43 44
51 51 49 50 51 54 46 37 28 20 18 19 17 16 16 16 16 17 18 14 15 19 18 21 19 25 26 26 23 22 17 24 20 28 19 9 13 26 29 30 34 37 41 42 43
46 48 46 49 52 51 44 34 29 22 19 19 17 16 15 17 16 15 16 15 19 26 27 21 20 23 26 27 27 24 25 19 18 15 9 6 6 13 24 26 32 36 39 41 41
45 42 42 50 50 47 39 33 29 25 28 20 17 16 15 16 16 14 16 24 25 27 28 20 19 25 26 22 16 25 22 21 20 20 14 6 7 15 18 24 28 34 38 40 39
46 37 50 53 35 42 37 33 30 27 33 24 23 18 18 18 19 16 14 19 27 27 23 25 21 18 21 26 27 25 22 22 20 14 18 22 13 17 21 23 28 31 36 39 38
44 45 54 45 32 40 36 33 28 26 31 26 21 20 21 22 21 20 18 36 35 31 24 28 18 15 20 25 27 24 22 21 21 23 18 17 13 18 21 22 24 27 31 36 37
41 42 48 49 35 38 35 30 27 32 28 26 22 22 23 20 22 23 24 34 36 32 30 32 18 19 17 17 22 25 24 23 21 20 16 11 12 13 18 19 19 25 28 32 36
43 34 42 38 37 40 34 29 26 28 31 31 27 26 24 24 24 28 28 33 35 34 30 31 25 22 21 23 24 22 20 21 21 20 17 15 13 7 6 10 17 20 26 30 35
43 32 37 35 37 40 35 29 25 27 30 30 22 26 26 26 29 27 31 31 30 34 32 31 26 28 27 26 26 23 22 20 17 18 17 15 12 14 19 16 20 20 26 28 34
48 38 39 39 38 34 33 28 25 31 37 32 26 24 28 33 37 37 35 32 31 33 33 32 29 27 21 23 22 20 22 19 17 18 18 17 17 17 20 22 22 22 27 29 32

GFSSW_sfc_30mbdewp_042.txt.gz
Dewpoint
55 55 55 54 55 54 55 54 53 53 53 52 52 53 52 52 51 46 43 33 36 40 38 29 26 21 20 17 14 12 10 11 13 25 43 44 46 47 40 36 42 44 51 55 61
55 54 55 55 56 56 54 54 53 53 53 53 53 53 52 52 48 42 36 39 38 38 30 25 23 20 17 14 12 12 12 11 28 42 43 41 46 46 31 32 37 47 56 60 61
54 54 54 55 55 56 55 54 52 52 52 53 54 52 52 51 46 31 47 40 39 37 28 23 22 14 12 11 11 12 11 11 25 35 41 41 42 42 32 36 40 48 56 60 60
55 55 55 55 55 55 55 53 52 51 52 52 53 51 52 49 32 31 48 45 42 34 28 28 22 15 9 10 11 12 12 11 22 37 36 35 37 38 37 39 44 49 58 59 58
55 54 54 54 54 55 55 52 52 51 51 53 52 51 49 43 35 46 53 51 41 31 28 24 17 14 12 11 10 11 11 13 15 18 29 32 35 37 35 33 45 48 57 56 53
54 54 54 53 54 54 55 53 52 51 51 53 51 51 49 33 24 34 39 46 28 26 27 23 17 16 15 16 9 12 12 15 19 23 26 31 37 38 35 35 51 54 55 53 51
55 54 53 53 53 54 54 54 52 51 52 51 51 49 42 34 28 31 36 32 27 26 25 22 22 19 20 22 21 16 14 14 20 24 30 30 30 27 36 38 46 49 48 48 47
55 54 53 52 53 54 54 54 54 52 52 50 50 49 39 33 31 30 31 34 32 31 28 27 28 24 24 27 19 10 12 17 21 20 23 32 30 29 35 38 43 46 45 45 43
54 54 53 52 53 53 53 53 53 53 51 50 51 48 35 34 29 28 28 27 28 30 30 29 29 28 26 24 17 13 12 18 20 18 21 28 26 27 30 34 37 37 38 39 37
54 53 52 52 53 53 53 53 53 51 50 48 45 41 42 27 22 23 25 26 28 29 30 29 27 26 25 22 12 16 11 14 16 16 16 24 22 20 28 33 34 34 33 31 31
54 53 52 52 53 53 51 49 47 47 45 32 30 26 23 26 26 24 24 22 27 29 28 28 25 23 20 18 19 16 13 13 9 11 11 9 13 15 24 29 33 33 33 32 32
53 53 52 53 53 53 51 46 36 43 41 40 28 29 28 30 26 22 22 20 26 24 34 31 20 22 25 21 18 11 17 15 6 6 6 10 7 17 19 25 32 35 36 37 36
53 52 52 52 53 51 47 41 41 44 40 34 34 18 25 27 25 19 19 18 20 26 25 26 25 29 18 16 11 12 24 22 21 12 4 9 4 15 20 23 27 33 36 38 38
53 52 52 53 49 46 44 44 43 44 39 26 26 20 23 26 23 21 19 17 22 20 27 30 32 28 23 13 14 19 27 22 20 17 10 25 16 16 19 22 26 28 32 36 38
53 52 52 51 48 44 40 40 41 45 30 19 23 22 25 23 21 19 20 17 22 21 22 30 32 26 23 20 20 24 23 26 17 13 20 21 23 26 23 23 25 32 34 35 38
53 52 52 51 50 48 49 52 48 41 25 16 17 19 20 20 20 17 17 21 19 21 25 28 31 27 21 21 20 29 26 22 17 18 21 24 25 24 25 30 33 32 35 38 40
53 52 51 48 44 46 48 48 38 29 20 16 16 19 19 19 17 15 17 17 17 17 17 22 20 23 25 20 22 20 17 19 28 28 14 12 15 13 28 30 30 32 35 39 42
52 52 51 48 48 50 50 48 30 23 25 15 15 18 18 18 17 14 17 13 15 15 14 16 20 20 22 20 28 26 18 24 20 24 19 20 15 19 27 27 29 34 35 41 45
52 50 48 50 52 52 49 39 29 26 20 19 16 17 17 16 16 15 13 13 13 14 15 23 24 30 24 20 27 24 19 23 17 27 20 13 7 27 27 28 31 34 38 43 44
49 46 45 50 52 51 46 37 32 29 22 19 14 16 15 15 14 15 14 16 12 13 27 30 29 33 26 24 24 20 20 19 16 13 12 9 8 24 24 25 29 35 39 42 43
47 42 41 51 52 47 38 36 35 31 26 21 16 15 15 14 15 14 13 14 15 20 24 28 32 32 25 22 14 24 22 17 14 20 18 17 13 13 18 23 26 33 38 42 42
45 38 48 53 42 36 37 35 34 33 28 25 22 17 16 16 15 12 12 15 21 23 23 22 22 23 23 23 24 22 21 21 23 19 20 20 19 17 18 21 25 28 35 40 41
42 42 51 50 35 33 35 34 34 32 30 27 25 21 18 16 16 16 16 34 30 24 24 25 23 19 17 21 24 22 18 17 19 24 21 22 17 18 18 17 21 23 29 36 40
42 38 48 49 36 30 34 32 32 34 27 27 26 21 20 20 21 21 20 34 35 32 30 33 24 19 17 15 21 22 22 19 20 23 23 22 15 13 16 19 18 22 24 28 37
44 37 45 41 41 31 37 32 32 29 27 27 25 20 21 21 21 20 22 34 34 34 31 29 20 17 15 17 20 23 22 20 19 21 21 23 18 14 14 16 16 18 23 25 27
42 38 42 37 39 33 35 34 31 28 26 28 25 22 22 22 20 21 25 32 29 34 30 31 26 28 26 26 23 22 21 19 18 18 16 17 17 18 15 22 21 21 19 20 25
45 46 41 39 37 32 35 35 34 29 27 27 28 26 26 28 30 36 33 33 29 33 32 30 32 30 27 26 22 18 21 21 19 18 18 17 19 18 18 17 21 22 23 24 27

GFSSW_sfc_30mbdewp_045.txt.gz
Dewpoint
56 56 55 56 56 56 56 55 54 54 53 53 53 54 54 53 52 47 39 38 43 41 39 35 31 32 27 22 22 18 12 10 10 34 41 46 43 51 48 50 48 53 53 59 57
56 55 55 55 56 56 56 56 54 53 53 52 53 54 54 53 49 43 42 43 46 41 31 27 25 26 20 19 18 15 12 12 19 40 40 42 41 46 46 45 51 57 60 57 55
55 55 55 55 55 55 55 55 53 53 52 52 53 54 53 52 47 41 45 47 46 38 29 27 24 23 20 17 14 12 11 13 22 38 40 39 39 41 41 37 42 50 54 58 55
55 55 54 55 55 55 54 55 54 52 52 52 53 53 52 51 31 32 46 49 44 35 29 27 27 24 18 10 11 11 12 13 32 39 39 38 42 39 38 38 48 54 57 58 58
55 54 54 54 54 54 54 55 54 53 52 51 53 53 50 44 41 40 50 49 41 35 29 27 27 22 15 13 14 12 11 14 34 37 37 41 40 39 38 43 45 49 51 56 57
55 54 54 54 53 53 54 54 54 53 52 52 53 52 49 35 34 48 48 42 35 29 28 28 26 18 17 16 21 18 12 14 20 28 33 38 41 36 38 44 43 46 48 52 56
55 54 54 54 53 53 53 54 54 54 52 53 52 50 46 33 34 31 35 38 34 26 26 27 25 22 23 23 28 20 15 17 21 29 32 38 38 36 41 40 49 52 55 55 53
56 55 54 53 52 52 53 53 53 54 54 53 51 49 41 41 38 37 35 33 33 27 27 28 29 29 24 26 26 24 13 15 22 27 34 31 27 33 42 50 52 54 53 51 45
56 55 54 53 52 52 53 53 53 53 53 52 49 48 42 42 37 33 30 28 33 33 31 30 29 28 28 24 24 18 12 17 20 22 33 30 25 29 40 47 47 46 46 43 39
56 55 54 53 52 52 52 52 52 52 51 49 47 41 42 31 33 29 29 29 27 29 30 29 28 27 27 25 21 15 14 15 17 21 29 25 24 28 36 43 44 44 43 41 38
56 55 53 52 52 53 51 50 47 47 46 40 36 32 24 28 27 23 25 26 25 31 29 36 29 24 25 25 21 17 17 15 18 19 21 24 23 28 30 36 37 38 39 37 35
56 55 53 52 52 53 51 47 45 43 43 43 41 37 33 31 29 29 24 22 23 31 36 31 30 30 25 24 21 21 20 20 20 14 10 14 20 24 27 33 35 34 32 32 33
56 54 53 52 52 52 48 44 43 43 43 40 39 40 34 27 28 28 23 22 22 31 32 29 30 32 24 26 23 24 24 22 22 26 18 9 11 15 23 27 35 35 35 34 36
55 54 52 52 48 48 47 48 48 46 41 35 32 35 27 19 26 28 26 19 18 27 30 30 29 29 27 27 25 24 25 26 22 22 16 23 15 20 19 22 31 35 35 37 37
55 54 52 50 49 47 48 51 46 46 21 31 31 26 19 22 25 24 24 21 20 21 27 29 29 28 27 27 25 21 25 24 25 24 24 23 21 21 24 21 24 28 35 38 39
54 54 52 51 50 48 48 48 48 42 26 25 23 20 23 25 25 23 20 20 22 23 28 25 31 29 29 29 27 26 21 26 32 30 20 20 18 24 21 23 28 27 32 37 42
54 53 51 49 45 50 49 48 39 35 26 19 19 19 21 21 22 20 19 18 18 18 24 24 22 30 30 28 27 27 25 23 19 22 21 25 23 23 26 27 30 29 31 38 43
53 53 51 48 49 51 52 45 34 30 28 21 19 20 20 20 19 19 18 17 19 19 21 22 21 30 30 26 25 24 27 19 20 22 24 24 22 23 28 30 31 33 35 38 44
53 51 49 49 50 51 49 38 31 31 25 24 19 19 19 20 20 18 17 18 18 18 15 26 26 32 30 34 27 27 24 29 26 31 27 19 17 27 29 30 33 35 38 44 46
48 49 48 49 51 49 45 35 36 34 31 29 19 18 18 19 19 18 16 16 16 17 22 29 27 36 33 34 27 24 25 22 21 13 12 16 18 25 27 30 34 35 41 44 45
48 45 47 49 51 47 37 37 37 37 34 30 22 18 19 19 18 15 18 16 17 21 28 31 26 31 30 30 25 23 22 22 19 23 17 17 13 22 26 27 33 37 42 44 44
46 39 47 51 42 41 38 37 38 36 36 36 29 24 18 18 19 15 15 16 20 24 25 30 30 30 28 32 30 22 22 26 18 18 22 21 18 19 23 27 29 35 41 43 43
42 42 48 48 30 35 37 36 37 35 34 34 28 26 24 21 21 19 18 35 31 26 26 29 24 26 27 28 28 22 22 20 22 29 21 19 18 20 18 18 25 27 37 42 43
43 38 45 45 30 30 34 32 32 36 36 35 33 28 27 22 23 23 31 34 35 32 30 31 27 22 18 16 20 21 23 22 21 21 21 21 22 21 20 18 20 22 25 39 42
44 36 42 39 38 32 33 31 32 33 34 35 34 27 27 22 21 23 34 34 34 33 31 29 24 22 20 23 25 22 23 24 22 23 21 21 22 22 22 20 20 24 25 25 32
42 39 43 41 41 39 33 31 31 32 33 33 33 28 26 24 23 24 32 33 31 34 30 31 26 25 25 28 25 22 23 22 22 20 19 20 21 23 22 23 22 22 22 25 28
44 46 40 41 40 39 34 32 31 34 34 34 30 31 26 27 28 36 29 33 32 30 30 32 29 29 26 25 22 21 21 20 21 22 20 17 22 24 22 24 25 25 29 28 30

GFSSW_sfc_30mbdewp_048.txt.gz
Dewpoint
56 56 55 55 55 55 55 56 56 54 54 53 53 53 54 54 52 48 37 27 41 35 40 35 31 30 30 24 23 17 16 12 11 21 35 46 45 50 48 44 51 58 55 58 58
57 56 55 55 55 55 55 55 55 54 53 53 52 53 54 53 49 45 42 43 45 46 36 29 21 24 26 20 19 16 13 12 13 30 38 44 44 45 44 45 50 54 58 58 58
57 56 55 55 55 55 54 54 54 55 52 53 52 53 54 53 45 39 45 48 48 47 31 27 26 24 22 21 19 15 12 12 14 34 41 40 38 43 41 42 46 53 54 57 56
56 55 55 55 55 54 53 53 54 55 54 53 52 53 53 51 24 33 45 47 51 41 29 25 27 25 21 17 12 9 11 12 18 41 39 37 39 39 39 37 52 57 55 56 56
56 55 54 54 54 54 53 53 54 54 54 53 53 53 49 41 32 41 49 51 45 34 29 26 27 26 21 16 15 17 20 14 29 40 40 40 38 39 39 51 55 57 55 55 57
56 55 54 54 54 53 53 53 53 54 54 53 53 52 48 30 33 48 43 41 35 32 26 27 26 26 22 19 23 26 23 19 36 39 38 35 34 36 41 50 53 53 56 56 56
56 55 55 54 54 53 52 52 53 53 53 54 52 49 46 26 35 39 35 39 35 25 25 28 29 26 23 21 27 27 15 19 32 37 38 37 35 35 42 45 48 48 50 52 56
57 56 55 54 53 52 52 52 53 53 53 54 52 49 34 42 43 40 37 34 35 28 26 27 29 29 26 26 26 25 15 14 22 31 36 31 26 34 40 42 42 47 50 53 55
57 56 55 54 53 52 51 52 52 53 54 53 49 47 39 45 40 39 38 30 30 31 26 27 29 28 28 25 24 22 11 18 20 28 30 28 24 33 42 44 50 52 53 53 55
57 57 55 54 53 51 52 51 52 52 51 50 47 39 39 25 35 33 31 30 28 31 30 31 29 27 27 25 20 18 14 15 17 22 29 28 25 28 45 50 51 51 50 46 53
56 57 55 54 52 52 51 47 44 46 46 37 32 28 25 31 32 30 28 27 28 32 27 35 29 28 28 27 25 22 18 18 19 20 28 28 26 26 44 47 47 47 44 42 47
55 56 55 53 52 52 51 42 42 41 37 42 43 41 38 36 33 28 26 24 25 29 36 30 24 28 31 27 26 23 21 21 20 23 23 25 23 25 41 45 45 45 43 40 43
54 56 55 52 52 51 47 44 44 42 39 41 42 42 41 41 34 28 26 23 27 31 32 26 25 28 29 25 26 25 23 23 22 24 18 16 16 21 27 37 41 42 42 39 38
53 56 54 52 46 47 47 49 48 46 34 32 39 38 36 26 20 28 28 24 26 28 30 27 26 27 29 27 26 23 25 25 24 20 15 22 7 20 23 28 35 37 37 36 36
51 55 53 49 48 46 47 48 47 47 7 26 33 37 31 18 25 25 28 23 19 28 31 25 28 29 27 25 26 25 27 25 25 23 24 23 20 18 21 22 32 35 34 34 37
50 54 52 51 49 47 47 49 49 38 11 28 31 26 19 17 21 25 23 23 23 23 28 26 32 29 29 30 30 29 24 30 30 29 21 21 22 19 21 19 23 34 35 36 38
49 54 52 50 42 50 51 48 39 31 29 25 24 18 18 18 21 24 21 18 17 19 21 25 27 31 32 26 27 27 25 21 19 20 19 25 24 23 25 25 25 28 33 36 40
49 53 52 49 49 49 50 44 32 31 31 28 21 19 20 23 23 21 19 18 20 20 25 22 21 28 31 29 28 27 25 19 14 18 19 27 21 23 29 29 29 30 29 38 42
50 52 51 51 50 48 48 36 29 33 29 23 19 20 21 21 21 20 20 18 18 19 17 24 24 33 33 33 32 26 24 28 26 31 26 24 19 27 30 30 33 32 35 37 44
45 47 48 50 49 46 43 35 35 35 35 32 20 20 19 20 20 20 19 19 18 20 20 25 24 34 34 30 28 27 26 21 25 15 16 16 18 24 28 29 33 34 36 44 47
44 43 47 51 48 42 36 35 36 34 36 35 31 24 20 20 20 19 19 18 18 18 24 30 26 28 33 28 24 24 22 22 22 21 17 17 14 20 28 31 33 34 39 45 46
41 35 49 51 39 38 37 36 36 35 37 36 37 34 26 21 19 19 18 17 25 29 25 29 30 24 24 29 31 31 28 27 20 16 23 20 16 22 28 30 34 35 41 45 45
36 39 49 47 35 34 36 36 37 34 35 34 34 34 26 22 19 21 20 30 34 28 26 30 29 25 25 25 31 29 28 25 28 26 20 18 19 22 21 26 29 34 39 44 45
36 34 44 46 40 32 32 35 36 35 34 35 36 36 34 26 24 21 25 34 35 31 31 29 27 23 21 20 22 22 24 23 22 20 21 22 21 22 22 22 20 27 31 42 44
41 33 39 36 38 36 32 33 35 33 32 35 33 34 34 26 24 25 33 34 34 31 32 28 23 24 23 23 25 23 23 24 22 24 20 21 23 22 24 21 22 22 25 33 42
37 37 40 39 37 37 32 30 31 31 29 28 34 34 35 29 25 23 32 31 27 32 28 31 22 24 23 26 24 23 22 22 22 21 22 22 21 25 25 25 25 24 27 29 33
38 44 39 35 37 36 34 30 30 29 29 27 32 33 34 33 29 28 32 32 29 26 28 29 27 25 20 24 23 21 22 22 21 22 22 19 22 24 26 25 28 30 30 32 35

GFSSW_sfc_30mbdewp_051.txt.gz
Dewpoint
56 56 56 55 55 54 54 55 55 55 54 53 53 52 53 54 53 48 34 29 42 42 38 34 31 29 30 26 24 17 16 13 13 13 23 47 44 47 49 48 55 57 54 58 60
57 57 56 55 55 54 54 54 54 54 55 54 53 52 53 54 50 43 41 43 43 48 35 29 22 24 24 21 20 17 14 13 13 16 36 45 44 44 43 51 53 54 57 59 60
57 57 56 55 55 54 54 53 53 54 55 54 53 52 53 53 36 35 46 49 46 49 35 28 26 23 21 22 20 16 13 13 12 24 41 43 42 45 42 44 52 53 54 57 57
57 57 56 55 55 55 54 53 53 54 54 54 53 52 53 50 8 32 49 50 51 46 35 25 26 24 23 19 14 10 12 11 12 40 40 39 39 40 41 41 53 55 55 55 56
57 56 55 55 54 54 54 52 53 53 54 54 53 53 48 35 25 41 50 55 48 34 29 24 27 26 21 21 17 14 20 24 25 39 38 40 40 39 46 55 55 55 55 55 54
57 56 55 55 54 54 54 52 52 53 53 54 53 52 47 22 31 44 42 40 37 33 28 26 25 26 25 22 22 25 26 35 39 39 39 37 37 37 50 55 55 55 55 54 53
58 57 55 55 54 54 53 52 51 53 53 54 53 50 44 22 36 38 37 35 36 32 24 27 28 26 25 23 26 26 18 34 37 37 36 36 32 36 50 54 53 53 55 55 54
58 57 56 55 54 53 52 51 51 52 53 54 52 49 29 38 44 43 40 36 35 34 26 26 29 28 28 27 26 24 16 25 33 37 37 30 25 40 49 51 50 52 54 54 54
57 57 57 55 54 53 52 51 51 53 53 53 48 47 31 43 37 38 41 31 32 33 30 28 29 28 28 25 23 23 10 17 27 33 35 33 24 34 45 48 48 48 50 54 54
51 57 57 56 54 52 51 51 51 52 52 51 48 39 31 25 34 33 38 31 28 31 31 32 29 27 28 26 20 22 19 17 17 26 30 32 26 38 42 44 45 49 51 54 55
52 53 56 56 54 52 50 46 39 45 46 37 29 27 26 33 38 31 31 29 29 31 27 35 27 25 27 29 28 26 22 18 19 20 23 25 26 27 43 48 48 51 52 52 54
52 53 56 56 53 52 50 41 39 41 36 40 41 39 38 39 37 34 28 24 26 24 34 28 25 27 30 29 26 24 23 20 21 23 23 25 26 26 41 48 48 49 50 48 54
51 51 55 55 52 51 46 42 44 44 35 37 41 40 39 41 36 35 27 25 26 29 30 27 24 29 28 26 25 23 23 22 22 24 22 19 21 24 36 46 48 48 48 45 50
50 50 55 53 48 46 46 48 48 45 29 26 40 40 40 38 27 32 27 23 29 24 32 28 29 26 28 26 26 22 26 25 25 22 13 20 11 17 26 40 45 46 45 42 46
50 50 55 51 45 46 47 47 47 45 4 19 37 38 37 24 24 23 29 24 21 27 29 23 28 27 26 24 27 25 28 28 25 24 24 23 20 19 23 33 38 43 43 42 41
51 50 54 51 49 47 48 49 47 33 6 22 33 33 25 19 19 25 25 24 24 28 29 26 32 28 27 29 29 28 26 28 30 27 19 23 21 19 20 20 26 36 41 40 38
50 49 53 51 46 50 50 47 38 28 23 25 28 26 22 17 17 22 20 22 19 22 23 25 26 30 32 27 28 27 25 19 19 19 18 26 24 22 24 25 23 27 36 37 37
49 49 52 51 49 48 50 44 31 28 28 33 23 21 14 19 18 23 21 18 19 21 23 21 21 27 30 28 26 27 25 20 14 15 17 26 23 21 28 30 29 29 35 37 38
48 49 49 52 51 47 47 36 28 29 32 23 22 17 18 21 19 20 21 19 19 20 16 22 22 33 32 33 28 27 24 26 25 30 24 23 22 23 29 30 33 31 32 37 39
45 44 45 51 51 45 41 34 34 35 36 35 20 20 17 20 21 20 20 20 19 20 22 24 18 32 33 33 31 26 27 22 24 16 16 16 18 19 26 27 30 35 33 34 41
42 39 44 51 50 43 34 34 35 35 35 35 34 26 21 20 20 20 19 20 21 21 22 29 21 25 31 27 22 26 24 23 24 20 15 16 17 17 27 28 27 30 36 42 44
39 33 48 50 41 39 34 35 35 35 35 36 36 36 33 22 20 20 19 20 21 25 20 28 25 21 22 28 31 28 25 26 22 18 23 20 16 21 23 29 32 32 36 43 46
34 36 49 46 35 36 35 34 36 34 35 33 33 36 34 26 20 22 21 25 31 26 24 30 26 20 21 24 32 30 30 29 28 25 20 17 18 22 21 23 29 33 35 42 46
34 32 42 44 39 34 33 34 35 35 35 36 34 35 34 31 26 22 22 33 33 29 30 29 29 21 19 19 23 25 26 26 26 21 20 21 20 22 20 23 23 23 30 37 44
36 30 36 34 36 38 34 34 34 33 35 33 32 32 34 31 25 24 33 34 33 33 31 28 22 25 23 22 22 21 20 25 23 23 21 21 22 23 25 23 22 23 24 29 38
32 35 39 37 35 35 34 32 33 34 32 31 29 35 30 30 30 25 32 31 29 31 30 30 24 23 24 26 26 23 23 22 23 23 24 23 22 24 25 28 27 28 30 34 38
35 40 40 33 34 34 33 31 32 34 34 33 30 29 29 34 36 34 32 33 30 29 28 27 25 23 20 25 23 22 23 23 22 22 22 19 21 24 27 29 30 32 33 35 38

GFSSW_sfc_30mbdewp_054.txt.gz
Dewpoint
57 56 56 56 55 55 54 54 54 54 54 54 54 54 53 52 52 49 33 30 42 45 40 35 31 30 30 26 23 18 16 14 13 15 17 47 43 47 49 50 55 56 54 58 60
57 57 57 56 55 54 54 54 53 53 54 55 54 54 53 54 49 41 39 43 45 43 34 27 21 25 25 23 20 18 16 15 15 14 19 41 44 43 45 52 53 54 58 59 59
58 58 57 57 55 55 54 54 53 53 54 54 54 54 54 53 32 28 51 49 47 50 33 28 25 23 21 22 20 16 15 14 13 14 35 40 44 44 45 48 52 53 56 57 57
58 58 57 56 55 55 54 54 53 53 54 54 54 53 53 50 5 26 54 54 52 46 31 26 24 24 23 20 18 15 14 14 13 25 41 42 41 42 42 43 53 55 56 57 57
58 57 57 56 55 55 54 53 53 52 53 53 54 53 48 30 23 31 50 57 49 39 28 25 27 26 22 23 19 14 19 24 26 37 40 39 40 40 50 55 55 55 56 55 56
57 58 57 56 55 55 54 53 52 52 52 53 54 52 44 21 27 43 39 42 37 32 30 26 25 26 25 24 21 23 25 35 39 38 39 38 39 40 52 54 53 54 54 55 56
54 57 57 56 55 55 54 53 52 51 52 53 53 50 43 24 36 37 39 35 36 32 24 26 27 26 26 25 25 26 20 33 38 38 38 36 36 36 52 53 53 53 54 54 54
52 55 57 57 55 55 54 52 52 51 52 53 52 48 29 35 42 43 41 37 36 34 27 25 28 27 28 28 26 24 16 25 32 37 37 31 26 44 53 53 52 53 53 54 53
52 51 55 57 56 55 53 52 51 52 53 53 48 46 27 38 31 33 38 32 32 34 31 28 29 28 28 25 22 21 15 17 28 35 35 32 25 42 53 52 51 52 52 53 53
52 52 52 56 56 55 52 51 51 52 52 52 48 39 31 24 32 34 40 35 29 31 32 31 30 26 28 26 18 22 22 22 18 28 32 32 31 39 50 50 50 51 53 53 53
51 52 52 53 56 54 50 45 37 43 47 38 34 28 22 35 39 32 33 32 31 30 27 34 29 24 26 28 27 25 23 20 19 20 27 26 26 34 44 47 47 48 50 52 53
51 52 51 53 56 52 50 40 38 42 37 40 41 38 35 39 36 35 30 24 25 23 33 29 27 27 29 30 26 25 23 22 21 24 23 23 23 28 41 44 45 47 50 51 54
50 51 51 52 53 51 47 42 45 47 38 34 38 38 37 39 34 33 28 26 24 24 28 27 25 28 29 26 23 23 23 23 23 24 21 20 18 25 35 46 49 50 50 51 52
48 49 49 54 50 47 44 47 48 47 28 23 35 39 41 39 28 36 28 26 30 22 30 29 29 26 27 26 25 21 26 26 26 24 19 21 12 16 27 40 46 48 49 50 49
46 49 49 53 46 45 46 47 48 45 5 17 39 41 40 29 24 29 29 25 25 26 28 23 27 26 25 24 27 23 27 27 27 24 23 22 20 19 22 25 39 46 47 48 47
46 48 50 52 50 47 48 49 47 34 12 16 35 34 33 24 22 26 26 25 26 29 30 26 32 28 26 30 28 29 28 28 29 26 19 21 21 19 20 21 27 40 46 46 45
46 47 50 51 47 49 49 45 37 28 21 22 30 28 25 21 18 23 24 21 21 21 23 25 26 29 31 27 29 27 24 19 18 19 17 25 23 22 23 25 25 28 39 45 45
47 46 50 50 50 48 49 42 29 28 26 30 26 25 21 17 19 19 21 21 21 21 23 21 21 26 30 27 24 26 24 20 15 15 15 25 20 20 26 30 30 30 28 40 43
47 46 47 47 51 47 45 35 28 30 31 25 22 20 18 18 17 21 21 19 20 22 17 22 20 32 32 33 29 28 23 26 25 29 24 21 22 19 28 30 33 32 33 35 39
45 42 41 48 53 46 40 33 33 33 35 35 24 20 17 18 19 19 20 21 19 21 22 23 17 31 32 32 31 27 29 23 23 18 16 17 17 16 19 26 29 31 33 35 39
43 37 38 49 51 44 34 33 35 35 35 33 35 31 21 20 20 20 17 20 21 21 23 25 19 23 30 27 23 27 25 24 23 20 15 14 15 19 19 27 28 29 34 36 37
41 30 43 49 40 39 36 34 35 35 36 35 36 36 32 23 21 20 19 19 22 23 20 27 22 18 21 29 29 26 25 24 21 19 23 21 18 21 19 22 28 29 33 39 43
36 32 48 44 32 34 36 35 35 34 35 33 33 36 36 28 20 22 22 23 24 23 22 28 22 16 18 24 32 28 29 28 27 25 22 20 20 23 23 22 23 28 31 36 43
36 28 40 42 36 33 33 32 32 36 35 36 35 34 33 31 30 22 22 29 30 24 28 27 26 17 14 15 22 26 28 29 27 23 22 22 21 22 22 23 23 24 24 29 37
37 28 35 32 33 36 32 31 32 31 35 35 34 33 33 30 28 25 29 33 34 34 30 25 19 25 21 21 23 21 22 27 26 25 22 22 22 23 24 24 23 24 24 27 32
34 30 36 35 32 33 35 31 31 33 33 32 31 32 32 31 30 28 32 32 29 32 30 30 23 24 23 25 25 23 23 25 24 24 24 23 22 25 25 28 29 31 34 39 41
38 40 36 31 33 30 31 32 31 34 35 33 32 30 30 31 34 34 36 35 33 31 30 27 25 23 21 25 24 22 23 23 23 23 23 22 23 24 27 29 31 33 36 38 40

GFSSW_sfc_30mbdewp_057.txt.gz
Dewpoint
57 57 57 57 56 55 54 54 54 53 53 54 54 54 54 54 52 49 34 31 41 44 43 36 31 31 30 25 22 19 17 15 14 14 18 44 44 48 50 51 54 55 54 58 60
58 58 58 57 57 55 54 54 54 53 53 54 54 54 54 54 49 39 38 42 43 48 34 26 24 28 27 24 22 19 17 16 16 15 16 41 43 44 45 51 52 53 58 59 59
59 59 58 58 57 56 55 54 54 53 53 54 54 54 54 53 34 22 51 48 47 48 32 27 24 23 22 22 20 18 16 16 15 15 22 32 43 44 44 47 51 52 55 57 57
56 59 58 57 57 56 55 54 53 53 52 53 54 54 54 49 4 29 54 56 49 46 29 26 22 23 23 21 20 17 17 17 15 15 34 33 43 43 45 45 51 54 56 57 56
55 55 58 58 57 56 55 54 53 53 52 53 54 54 47 30 24 32 56 56 48 40 27 23 25 26 23 23 20 15 17 23 23 31 38 41 41 42 48 54 55 57 57 56 55
53 53 55 58 57 56 55 54 53 53 52 52 53 53 43 22 26 40 46 42 37 32 29 26 26 27 25 25 22 22 23 31 39 38 40 39 41 43 51 55 54 54 54 55 54
53 53 53 56 57 57 55 55 53 53 52 52 53 50 42 27 38 38 40 36 36 32 25 26 26 26 27 26 26 26 24 30 38 38 38 39 36 36 51 54 53 53 53 54 54
52 52 51 52 56 57 55 54 53 53 52 53 53 48 33 35 40 40 41 36 37 35 29 27 29 28 28 29 27 24 16 20 31 37 37 34 30 43 52 52 51 52 53 54 54
52 52 52 51 53 56 56 54 53 52 53 53 48 44 30 36 28 33 37 26 34 35 32 29 30 29 29 26 22 24 16 17 25 36 36 32 27 43 51 52 50 51 51 53 53
49 51 51 52 52 55 55 53 50 52 52 51 48 39 36 23 30 35 40 34 30 33 33 32 30 28 29 26 17 21 22 22 19 25 33 33 31 43 51 52 50 48 50 51 52
48 50 51 52 52 55 51 47 34 40 48 38 35 34 23 33 39 35 37 33 32 30 28 34 28 26 25 28 27 25 24 21 21 22 32 31 30 35 50 51 49 49 49 50 51
45 49 50 51 51 54 50 46 37 43 39 41 41 40 37 38 36 35 33 27 26 24 32 29 28 29 27 29 28 25 23 22 23 25 25 24 22 27 46 49 48 48 48 47 50
46 47 49 50 53 52 48 47 45 46 42 40 39 38 37 38 34 31 30 26 24 24 29 27 26 28 29 27 26 24 22 24 24 25 22 20 17 24 38 45 47 47 48 48 50
46 45 47 48 50 49 47 47 47 47 36 26 32 36 40 38 29 35 28 27 29 22 27 26 29 27 27 26 26 21 25 26 25 24 19 22 18 18 24 39 44 45 47 48 50
47 46 47 49 47 45 45 49 48 43 8 19 38 41 40 31 27 32 29 26 24 26 29 22 27 27 26 25 27 24 28 27 27 25 24 23 21 20 22 24 35 44 47 49 49
48 46 46 48 50 48 49 49 46 35 16 17 37 36 35 34 24 29 27 26 30 29 30 25 31 28 26 29 28 29 29 27 28 26 20 22 21 20 20 21 24 31 43 49 49
47 47 46 48 44 50 50 45 36 29 27 20 32 32 30 26 21 25 25 24 23 22 23 25 26 29 30 27 29 27 24 20 20 20 17 26 23 22 24 25 26 27 33 45 49
47 47 46 48 51 49 48 41 29 28 28 29 28 30 22 20 20 22 24 23 23 22 23 19 18 26 30 27 25 26 25 21 15 15 16 25 21 19 27 27 31 33 32 33 47
47 46 45 46 49 49 45 33 25 28 31 25 22 25 24 18 19 21 23 22 22 23 18 21 19 30 32 32 28 28 24 27 25 28 24 22 22 20 25 26 31 33 32 33 38
42 43 42 45 49 48 39 31 32 32 35 35 26 22 23 18 18 19 21 22 22 23 24 23 18 31 32 33 32 28 29 24 25 18 17 18 18 15 18 26 28 28 32 34 38
41 37 39 46 49 42 33 30 32 35 35 33 35 34 21 19 19 20 20 20 22 22 23 24 20 23 30 28 25 28 26 25 24 22 17 15 15 22 19 24 28 30 33 36 36
39 31 39 45 36 37 33 33 33 33 36 34 35 35 33 23 21 19 18 19 23 23 21 25 22 19 21 29 29 28 26 25 22 20 24 21 19 23 23 22 24 27 31 36 41
36 36 42 40 29 31 33 33 32 34 34 34 33 35 36 31 20 22 22 23 25 23 23 27 22 16 18 24 31 28 28 27 27 26 22 21 21 24 24 24 24 24 28 32 39
36 30 38 38 33 30 31 31 33 34 35 35 34 34 33 30 31 22 23 27 27 24 27 26 24 18 15 16 21 25 28 29 26 24 24 24 23 24 24 24 25 27 27 26 27
36 31 33 30 31 31 30 29 29 31 33 36 34 33 33 25 30 26 30 33 33 32 29 25 19 22 19 19 22 21 23 28 27 26 24 24 24 24 24 24 24 29 32 38 40
33 33 33 32 31 31 31 31 29 31 33 32 32 34 32 30 30 29 30 31 30 33 30 29 20 24 21 25 23 20 22 26 28 26 26 25 24 25 26 27 30 35 39 40 42
39 37 30 30 32 29 29 28 31 31 33 33 32 32 32 33 34 33 35 35 35 32 31 29 25 23 20 25 24 22 23 24 25 26 25 23 25 26 26 29 32 36 39 39 40

GFSSW_sfc_30mbdewp_060.txt.gz
Dewpoint
59 58 58 57 57 56 55 54 54 54 53 53 54 55 54 55 52 44 34 34 37 43 44 34 30 31 27 19 21 19 12 9 11 12 20 33 35 47 48 46 49 52 51 56 60
58 59 59 58 58 57 55 55 54 54 54 53 54 54 55 54 45 36 36 40 43 46 32 24 21 26 24 23 18 18 13 11 13 14 15 20 35 40 44 45 47 53 58 59 59
56 56 59 59 58 57 56 55 54 54 54 53 54 54 54 53 37 26 50 48 47 47 32 27 21 24 21 22 20 19 13 15 17 18 18 19 30 35 38 37 43 49 55 57 58
54 55 55 58 58 57 56 55 54 54 53 53 53 54 54 46 15 35 51 54 49 42 30 24 19 20 20 20 21 18 17 19 19 19 21 23 30 37 40 43 48 52 56 57 57
52 53 54 54 58 58 57 55 55 54 53 52 53 54 45 31 25 35 55 58 45 38 26 20 17 21 19 19 23 21 18 21 25 32 28 35 35 39 43 50 53 55 56 56 56
50 51 53 53 55 57 57 56 55 54 53 53 52 53 42 26 26 41 44 41 34 32 26 21 25 27 25 24 24 23 22 24 33 32 35 36 39 40 46 52 54 55 55 55 55
49 51 52 52 52 55 57 56 55 54 54 53 53 48 41 31 31 36 38 36 34 30 24 25 26 27 28 24 27 26 23 24 34 34 36 38 35 35 45 52 53 53 54 54 54
48 51 52 52 51 52 55 56 55 55 53 53 53 47 33 34 34 35 37 36 35 33 30 28 28 30 29 29 26 22 21 16 31 35 38 36 25 35 47 49 49 52 52 53 54
47 49 50 51 51 52 54 56 55 53 52 53 48 44 30 35 34 30 31 34 34 34 34 28 30 30 30 23 18 17 15 14 27 34 34 34 26 38 48 47 45 48 49 51 53
47 47 48 50 51 52 54 54 53 51 51 50 47 41 34 24 28 36 34 29 31 33 32 31 30 27 26 22 12 11 16 16 15 28 33 29 25 34 46 46 44 43 46 49 50
46 46 47 49 51 51 53 51 45 42 47 34 35 32 27 31 38 34 36 31 27 31 27 32 26 23 20 22 27 22 19 17 19 23 29 26 24 23 41 47 45 43 43 46 48
46 46 46 49 50 52 53 47 44 44 38 38 38 36 37 36 33 35 35 26 27 27 29 30 24 24 27 27 27 24 18 17 22 24 25 21 20 21 32 43 44 44 43 43 45
46 46 46 48 50 52 50 47 46 45 39 36 37 34 31 36 30 28 32 25 25 26 26 23 24 28 28 27 26 24 21 20 20 24 24 21 16 21 31 40 45 46 45 42 42
46 46 46 47 46 48 48 48 48 48 34 26 34 35 34 32 30 29 32 24 24 24 24 24 26 27 26 25 24 21 23 23 22 20 16 22 14 18 22 31 38 41 45 45 42
46 47 46 46 49 46 47 50 50 47 5 21 34 37 35 25 24 26 29 26 21 23 26 22 26 26 23 22 25 21 26 25 24 22 23 20 17 16 21 20 28 36 40 44 45
47 46 46 44 44 48 48 51 47 33 12 18 36 36 34 30 26 28 27 27 22 24 26 22 29 27 24 27 27 28 27 27 27 24 19 20 18 14 15 18 21 25 35 39 43
47 46 47 41 41 47 51 47 34 20 19 15 33 35 29 24 25 24 23 24 20 20 21 23 23 26 29 26 29 27 24 20 21 20 17 23 20 16 20 23 25 27 29 32 40
47 46 46 44 42 50 48 42 22 10 18 27 29 31 28 21 22 23 23 20 20 19 17 18 17 23 28 25 24 25 23 19 14 15 16 23 15 15 24 25 29 32 33 33 34
47 46 44 46 43 51 44 32 14 18 22 21 25 30 25 20 20 23 22 19 20 21 17 17 15 26 28 29 27 27 23 26 25 29 23 18 18 19 22 23 29 28 30 33 33
42 43 41 46 45 45 39 26 20 24 27 33 19 26 27 20 19 20 21 22 21 22 20 22 16 26 31 31 31 29 27 23 24 18 15 16 16 12 16 23 21 22 25 30 36
42 38 38 45 45 39 32 26 25 28 33 32 27 30 23 22 19 20 21 21 23 24 22 22 20 28 31 27 23 27 25 26 24 22 17 15 15 18 19 21 27 29 29 31 35
38 31 42 44 33 35 31 28 26 26 34 34 35 35 33 23 18 15 18 18 23 22 22 23 20 19 21 29 29 26 24 25 20 19 24 23 18 19 22 25 24 25 29 34 38
35 36 44 40 27 29 31 30 26 28 27 33 32 33 37 33 21 19 19 22 24 22 21 24 21 18 19 25 29 24 25 24 25 26 19 21 18 24 25 26 26 25 26 30 35
37 30 37 39 30 28 28 26 26 28 29 32 33 33 32 30 32 24 23 28 28 25 27 27 20 19 17 15 17 21 23 23 23 21 18 20 19 19 23 23 23 27 28 28 29
37 32 34 29 31 25 26 25 25 26 30 34 32 32 29 28 31 30 27 33 29 31 26 26 19 21 18 17 15 16 15 19 19 20 15 19 17 23 24 25 25 29 30 35 38
34 28 34 28 30 27 26 27 23 24 26 28 29 30 32 31 31 30 29 31 30 33 28 30 20 23 21 20 20 17 18 17 20 19 23 23 20 23 26 27 28 31 36 38 42
39 31 30 26 28 27 26 26 24 25 28 27 31 32 33 31 33 33 33 32 32 33 32 29 25 24 19 24 24 23 23 19 21 25 24 20 22 23 26 27 29 34 38 39 41